Time,TemperatureF,DewpointF,PressureIn,WindDirection,WindDirectionDegrees,WindSpeedMPH,WindSpeedGustMPH,Humidity,HourlyPrecipIn,Conditions,Clouds,dailyrainin,SoftwareType,DateUTC
2014-09-30 00:00:00,61.7,60.3,29.81,WNW,291,0.0,5.0,95,0.00,,,0.01,VWS V14.01,2014-09-30 04:00:00,
2014-09-30 00:01:00,61.7,60.3,29.81,WNW,291,0.0,0.0,95,0.00,,,0.00,VWS V14.01,2014-09-30 04:01:00,
2014-09-30 00:02:00,61.7,60.3,29.81,WNW,291,0.0,0.0,95,0.00,,,0.00,VWS V14.01,2014-09-30 04:02:00,
2014-09-30 00:03:00,61.7,60.3,29.81,WNW,291,0.0,0.0,95,0.00,,,0.00,VWS V14.01,2014-09-30 04:03:00,
2014-09-30 00:04:00,61.6,60.2,29.81,WNW,291,0.0,0.0,95,0.00,,,0.00,VWS V14.01,2014-09-30 04:04:00,
2014-09-30 00:05:00,61.6,60.2,29.81,WNW,291,0.0,0.0,95,0.00,,,0.00,VWS V14.01,2014-09-30 04:05:00,
2014-09-30 00:06:00,61.6,60.2,29.81,WNW,291,0.0,0.0,95,0.00,,,0.00,VWS V14.01,2014-09-30 04:06:00,
2014-09-30 00:07:00,61.6,60.2,29.81,WNW,291,0.0,0.0,95,0.00,,,0.00,VWS V14.01,2014-09-30 04:07:00,
2014-09-30 00:08:00,61.6,60.2,29.80,WNW,291,0.0,0.0,95,0.00,,,0.00,VWS V14.01,2014-09-30 04:08:00,
2014-09-30 00:09:00,61.6,60.2,29.81,WNW,291,0.0,0.0,95,0.00,,,0.00,VWS V14.01,2014-09-30 04:09:00,
2014-09-30 00:10:00,61.6,60.2,29.81,WNW,291,0.0,0.0,95,0.00,,,0.00,VWS V14.01,2014-09-30 04:10:00,
2014-09-30 00:11:00,61.6,60.2,29.81,WNW,291,0.0,0.0,95,0.00,,,0.00,VWS V14.01,2014-09-30 04:11:00,
2014-09-30 00:12:00,61.6,60.2,29.81,WNW,291,0.0,0.0,95,0.00,,,0.00,VWS V14.01,2014-09-30 04:12:00,
2014-09-30 00:13:00,61.4,60.2,29.81,WNW,291,0.0,5.0,96,0.00,,,0.01,VWS V14.01,2014-09-30 04:13:00,
2014-09-30 00:14:00,61.6,60.2,29.81,WNW,291,0.0,0.0,95,0.00,,,0.00,VWS V14.01,2014-09-30 04:14:00,
2014-09-30 00:15:00,61.6,60.2,29.81,WNW,291,0.0,0.0,95,0.00,,,0.00,VWS V14.01,2014-09-30 04:15:00,
2014-09-30 00:16:00,61.6,60.2,29.81,WNW,291,0.0,0.0,95,0.00,,,0.00,VWS V14.01,2014-09-30 04:16:00,
2014-09-30 00:17:00,61.6,60.2,29.81,WNW,291,0.0,1.0,95,0.00,,,0.00,VWS V14.01,2014-09-30 04:17:00,
2014-09-30 00:18:00,61.6,60.2,29.81,WNW,291,0.0,1.0,95,0.00,,,0.00,VWS V14.01,2014-09-30 04:18:00,
2014-09-30 00:19:00,61.6,60.2,29.81,WNW,291,0.0,1.0,95,0.00,,,0.00,VWS V14.01,2014-09-30 04:19:00,
2014-09-30 00:20:00,61.6,60.2,29.81,WNW,291,0.0,1.0,95,0.00,,,0.00,VWS V14.01,2014-09-30 04:20:00,
2014-09-30 00:21:00,61.6,60.2,29.81,WNW,291,0.0,1.0,95,0.00,,,0.00,VWS V14.01,2014-09-30 04:21:00,
2014-09-30 00:22:00,61.6,60.2,29.81,WNW,291,3.0,3.0,95,0.00,,,0.00,VWS V14.01,2014-09-30 04:22:00,
2014-09-30 00:23:00,61.6,60.2,29.81,WNW,291,0.0,3.0,95,0.00,,,0.00,VWS V14.01,2014-09-30 04:23:00,
2014-09-30 00:24:00,61.6,60.5,29.81,WNW,291,0.0,3.0,96,0.00,,,0.00,VWS V14.01,2014-09-30 04:24:00,
2014-09-30 00:25:00,61.7,60.5,29.81,WNW,291,0.0,5.0,96,0.00,,,0.01,VWS V14.01,2014-09-30 04:25:00,
2014-09-30 00:26:00,61.7,60.5,29.81,WNW,291,0.0,3.0,96,0.00,,,0.00,VWS V14.01,2014-09-30 04:26:00,
2014-09-30 00:27:00,61.8,60.7,29.81,WNW,291,0.0,3.0,96,0.00,,,0.00,VWS V14.01,2014-09-30 04:27:00,
2014-09-30 00:28:00,61.8,60.7,29.81,WNW,291,2.0,3.0,96,0.00,,,0.00,VWS V14.01,2014-09-30 04:28:00,
2014-09-30 00:29:00,61.8,60.7,29.81,WNW,291,0.0,3.0,96,0.00,,,0.00,VWS V14.01,2014-09-30 04:29:00,
2014-09-30 00:30:00,62.0,60.8,29.81,WNW,291,0.0,3.0,96,0.00,,,0.00,VWS V14.01,2014-09-30 04:30:00,
2014-09-30 00:31:00,62.0,60.8,29.81,WNW,291,0.0,3.0,96,0.00,,,0.00,VWS V14.01,2014-09-30 04:31:00,
2014-09-30 00:32:00,62.1,61.0,29.81,WNW,291,1.0,3.0,96,0.00,,,0.00,VWS V14.01,2014-09-30 04:32:00,
2014-09-30 00:33:00,62.2,61.0,29.81,WNW,291,0.0,3.0,96,0.00,,,0.00,VWS V14.01,2014-09-30 04:33:00,
2014-09-30 00:34:00,62.2,61.0,29.81,WNW,291,0.0,3.0,96,0.00,,,0.00,VWS V14.01,2014-09-30 04:34:00,
2014-09-30 00:35:00,62.3,61.2,29.81,WNW,291,1.0,3.0,96,0.00,,,0.00,VWS V14.01,2014-09-30 04:35:00,
2014-09-30 00:36:00,62.4,61.2,29.81,WNW,291,0.0,3.0,96,0.00,,,0.00,VWS V14.01,2014-09-30 04:36:00,
2014-09-30 00:37:00,61.7,60.3,29.81,WNW,291,0.0,5.0,95,0.00,,,0.01,VWS V14.01,2014-09-30 04:37:00,
2014-09-30 00:38:00,62.5,61.3,29.81,WNW,291,0.0,3.0,96,0.00,,,0.00,VWS V14.01,2014-09-30 04:38:00,
2014-09-30 00:39:00,62.6,61.5,29.81,WNW,291,0.0,3.0,96,0.00,,,0.00,VWS V14.01,2014-09-30 04:39:00,
2014-09-30 00:40:00,62.6,61.5,29.81,WNW,291,0.0,3.0,96,0.00,,,0.00,VWS V14.01,2014-09-30 04:40:00,
2014-09-30 00:41:00,62.6,61.5,29.81,WNW,291,0.0,3.0,96,0.00,,,0.00,VWS V14.01,2014-09-30 04:41:00,
2014-09-30 00:42:00,62.7,61.5,29.81,WNW,291,0.0,3.0,96,0.00,,,0.00,VWS V14.01,2014-09-30 04:42:00,
2014-09-30 00:43:00,62.7,61.5,29.81,WNW,291,0.0,3.0,96,0.00,,,0.00,VWS V14.01,2014-09-30 04:43:00,
2014-09-30 00:44:00,62.8,61.7,29.81,WNW,291,0.0,3.0,96,0.00,,,0.00,VWS V14.01,2014-09-30 04:44:00,
2014-09-30 00:45:00,62.8,61.7,29.81,WNW,291,0.0,3.0,96,0.00,,,0.00,VWS V14.01,2014-09-30 04:45:00,
2014-09-30 00:46:00,62.8,61.7,29.81,WNW,291,0.0,3.0,96,0.00,,,0.00,VWS V14.01,2014-09-30 04:46:00,
2014-09-30 00:47:00,62.8,61.7,29.81,WNW,291,0.0,3.0,96,0.00,,,0.00,VWS V14.01,2014-09-30 04:47:00,
2014-09-30 00:48:00,62.9,61.8,29.81,WNW,291,0.0,3.0,96,0.00,,,0.00,VWS V14.01,2014-09-30 04:48:00,
2014-09-30 00:49:00,62.9,61.8,29.81,WNW,291,0.0,3.0,96,0.00,,,0.00,VWS V14.01,2014-09-30 04:49:00,
2014-09-30 00:50:00,62.9,61.8,29.81,WNW,291,0.0,3.0,96,0.00,,,0.00,VWS V14.01,2014-09-30 04:50:00,
2014-09-30 00:51:00,62.9,61.8,29.81,WNW,291,0.0,3.0,96,0.00,,,0.00,VWS V14.01,2014-09-30 04:51:00,
2014-09-30 00:52:00,62.9,61.8,29.81,WNW,291,0.0,3.0,96,0.00,,,0.00,VWS V14.01,2014-09-30 04:52:00,
2014-09-30 00:53:00,62.9,61.8,29.81,WNW,291,0.0,3.0,96,0.00,,,0.00,VWS V14.01,2014-09-30 04:53:00,
2014-09-30 00:54:00,62.9,61.8,29.81,WNW,291,0.0,3.0,96,0.00,,,0.00,VWS V14.01,2014-09-30 04:54:00,
2014-09-30 00:55:00,62.9,61.8,29.81,WNW,291,1.0,3.0,96,0.00,,,0.00,VWS V14.01,2014-09-30 04:55:00,
2014-09-30 00:56:00,63.0,61.8,29.81,WNW,291,0.0,3.0,96,0.01,,,0.01,VWS V14.01,2014-09-30 04:56:00,
2014-09-30 00:57:00,63.0,61.8,29.81,WNW,291,0.0,3.0,96,0.01,,,0.01,VWS V14.01,2014-09-30 04:57:00,
2014-09-30 00:58:00,63.0,61.8,29.81,WNW,291,0.0,3.0,96,0.01,,,0.01,VWS V14.01,2014-09-30 04:58:00,
2014-09-30 00:59:00,63.0,61.8,29.82,WNW,291,0.0,3.0,96,0.01,,,0.01,VWS V14.01,2014-09-30 04:59:00,
2014-09-30 01:00:00,63.0,61.8,29.82,WNW,291,0.0,3.0,96,0.01,,,0.01,VWS V14.01,2014-09-30 05:00:00,
2014-09-30 01:01:00,63.0,61.8,29.82,WNW,291,0.0,4.0,96,0.01,,,0.01,VWS V14.01,2014-09-30 05:01:00,
2014-09-30 01:02:00,61.6,60.2,29.81,WNW,291,2.0,2.0,95,0.00,,,0.00,VWS V14.01,2014-09-30 05:02:00,
2014-09-30 01:03:00,62.9,61.8,29.82,WNW,291,0.0,4.0,96,0.01,,,0.01,VWS V14.01,2014-09-30 05:03:00,
2014-09-30 01:04:00,62.9,61.8,29.81,WNW,291,2.0,6.0,96,0.01,,,0.01,VWS V14.01,2014-09-30 05:04:00,
2014-09-30 01:05:00,62.9,61.8,29.81,WNW,286,1.0,8.0,96,0.01,,,0.01,VWS V14.01,2014-09-30 05:05:00,
2014-09-30 01:06:00,62.9,61.8,29.81,WNW,286,1.0,8.0,96,0.02,,,0.02,VWS V14.01,2014-09-30 05:06:00,
2014-09-30 01:07:00,62.8,61.7,29.81,WNW,282,0.0,8.0,96,0.02,,,0.02,VWS V14.01,2014-09-30 05:07:00,
2014-09-30 01:08:00,62.8,61.7,29.81,West,281,0.0,8.0,96,0.02,,,0.02,VWS V14.01,2014-09-30 05:08:00,
2014-09-30 01:09:00,62.7,61.5,29.81,West,279,8.0,8.0,96,0.03,,,0.03,VWS V14.01,2014-09-30 05:09:00,
2014-09-30 01:10:00,62.6,61.5,29.81,WNW,294,7.0,8.0,96,0.03,,,0.03,VWS V14.01,2014-09-30 05:10:00,
2014-09-30 01:11:00,62.5,61.3,29.81,WNW,295,0.0,8.0,96,0.03,,,0.03,VWS V14.01,2014-09-30 05:11:00,
2014-09-30 01:12:00,62.3,60.8,29.81,WNW,295,1.0,8.0,95,0.03,,,0.03,VWS V14.01,2014-09-30 05:12:00,
2014-09-30 01:13:00,62.1,60.7,29.81,WNW,298,0.0,8.0,95,0.03,,,0.03,VWS V14.01,2014-09-30 05:13:00,
2014-09-30 01:14:00,61.8,60.4,29.81,WNW,300,1.0,8.0,95,0.03,,,0.03,VWS V14.01,2014-09-30 05:14:00,
2014-09-30 01:15:00,61.6,59.9,29.81,WNW,300,0.0,8.0,94,0.03,,,0.03,VWS V14.01,2014-09-30 05:15:00,
2014-09-30 01:16:00,61.3,59.9,29.81,WNW,298,0.0,8.0,95,0.03,,,0.03,VWS V14.01,2014-09-30 05:16:00,
2014-09-30 01:17:00,61.1,59.4,29.82,WNW,299,3.0,8.0,94,0.03,,,0.03,VWS V14.01,2014-09-30 05:17:00,
2014-09-30 01:18:00,60.9,59.2,29.82,WNW,299,1.0,8.0,94,0.03,,,0.03,VWS V14.01,2014-09-30 05:18:00,
2014-09-30 01:19:00,60.7,59.0,29.82,WNW,300,8.0,8.0,94,0.03,,,0.03,VWS V14.01,2014-09-30 05:19:00,
2014-09-30 01:20:00,60.5,58.8,29.81,WNW,300,0.0,8.0,94,0.03,,,0.03,VWS V14.01,2014-09-30 05:20:00,
2014-09-30 01:21:00,60.4,58.7,29.82,WNW,300,0.0,8.0,94,0.03,,,0.03,VWS V14.01,2014-09-30 05:21:00,
2014-09-30 01:22:00,60.3,58.9,29.81,WNW,300,0.0,8.0,95,0.03,,,0.03,VWS V14.01,2014-09-30 05:22:00,
2014-09-30 01:23:00,60.1,58.7,29.82,WNW,299,0.0,8.0,95,0.03,,,0.03,VWS V14.01,2014-09-30 05:23:00,
2014-09-30 01:24:00,60.0,58.6,29.82,WNW,299,0.0,8.0,95,0.03,,,0.03,VWS V14.01,2014-09-30 05:24:00,
2014-09-30 01:25:00,59.9,58.5,29.82,WNW,299,3.0,8.0,95,0.03,,,0.03,VWS V14.01,2014-09-30 05:25:00,
2014-09-30 01:26:00,59.8,58.4,29.82,WNW,302,0.0,9.0,95,0.03,,,0.03,VWS V14.01,2014-09-30 05:26:00,
2014-09-30 01:27:00,59.7,58.3,29.82,WNW,302,0.0,9.0,95,0.03,,,0.03,VWS V14.01,2014-09-30 05:27:00,
2014-09-30 01:28:00,59.6,58.2,29.82,NW,304,7.0,9.0,95,0.03,,,0.03,VWS V14.01,2014-09-30 05:28:00,
2014-09-30 01:29:00,59.5,58.1,29.82,NW,304,2.0,9.0,95,0.03,,,0.03,VWS V14.01,2014-09-30 05:29:00,
2014-09-30 01:30:00,59.4,58.0,29.82,NW,304,0.0,9.0,95,0.03,,,0.03,VWS V14.01,2014-09-30 05:30:00,
2014-09-30 01:31:00,59.4,58.0,29.82,NW,304,0.0,9.0,95,0.03,,,0.03,VWS V14.01,2014-09-30 05:31:00,
2014-09-30 01:32:00,59.3,57.9,29.82,NW,304,0.0,9.0,95,0.03,,,0.03,VWS V14.01,2014-09-30 05:32:00,
2014-09-30 01:33:00,59.1,57.7,29.82,NW,305,0.0,9.0,95,0.03,,,0.03,VWS V14.01,2014-09-30 05:33:00,
2014-09-30 01:34:00,59.0,57.6,29.82,WNW,292,4.0,9.0,95,0.03,,,0.03,VWS V14.01,2014-09-30 05:34:00,
2014-09-30 01:35:00,59.0,57.6,29.82,WNW,292,0.0,9.0,95,0.03,,,0.03,VWS V14.01,2014-09-30 05:35:00,
2014-09-30 01:36:00,59.0,57.6,29.82,WNW,292,0.0,9.0,95,0.03,,,0.03,VWS V14.01,2014-09-30 05:36:00,
2014-09-30 01:37:00,59.0,57.6,29.83,WNW,292,3.0,9.0,95,0.03,,,0.03,VWS V14.01,2014-09-30 05:37:00,
2014-09-30 01:38:00,59.0,57.6,29.83,WNW,292,1.0,9.0,95,0.03,,,0.03,VWS V14.01,2014-09-30 05:38:00,
2014-09-30 01:39:00,58.9,58.3,29.83,WNW,292,0.0,9.0,98,0.03,,,0.03,VWS V14.01,2014-09-30 05:39:00,
2014-09-30 01:40:00,58.8,57.4,29.83,WNW,292,0.0,9.0,95,0.03,,,0.03,VWS V14.01,2014-09-30 05:40:00,
2014-09-30 01:41:00,58.7,57.6,29.83,WNW,292,0.0,9.0,96,0.03,,,0.03,VWS V14.01,2014-09-30 05:41:00,
2014-09-30 01:42:00,58.6,57.5,29.83,WNW,292,0.0,9.0,96,0.03,,,0.03,VWS V14.01,2014-09-30 05:42:00,
2014-09-30 01:43:00,58.6,57.5,29.83,NW,312,4.0,9.0,96,0.03,,,0.03,VWS V14.01,2014-09-30 05:43:00,
2014-09-30 01:44:00,58.5,57.4,29.83,NW,312,0.0,9.0,96,0.03,,,0.03,VWS V14.01,2014-09-30 05:44:00,
2014-09-30 01:45:00,58.5,57.4,29.83,NW,311,0.0,9.0,96,0.04,,,0.04,VWS V14.01,2014-09-30 05:45:00,
2014-09-30 01:46:00,58.4,57.3,29.83,NW,311,0.0,9.0,96,0.04,,,0.04,VWS V14.01,2014-09-30 05:46:00,
2014-09-30 01:47:00,62.8,61.7,29.81,West,281,2.0,8.0,96,0.02,,,0.02,VWS V14.01,2014-09-30 05:47:00,
2014-09-30 01:48:00,58.3,57.2,29.83,NW,311,0.0,9.0,96,0.05,,,0.05,VWS V14.01,2014-09-30 05:48:00,
2014-09-30 01:49:00,58.3,57.2,29.83,NW,311,1.0,9.0,96,0.05,,,0.05,VWS V14.01,2014-09-30 05:49:00,
2014-09-30 01:50:00,58.2,57.1,29.83,NW,311,2.0,9.0,96,0.05,,,0.05,VWS V14.01,2014-09-30 05:50:00,
2014-09-30 01:51:00,58.2,57.1,29.83,NW,311,0.0,9.0,96,0.05,,,0.05,VWS V14.01,2014-09-30 05:51:00,
2014-09-30 01:52:00,58.1,57.0,29.83,NW,311,0.0,9.0,96,0.05,,,0.05,VWS V14.01,2014-09-30 05:52:00,
2014-09-30 01:53:00,62.1,60.7,29.81,WNW,298,1.0,8.0,95,0.03,,,0.03,VWS V14.01,2014-09-30 05:53:00,
2014-09-30 01:54:00,58.0,56.9,29.83,NW,319,0.0,9.0,96,0.05,,,0.05,VWS V14.01,2014-09-30 05:54:00,
2014-09-30 01:55:00,58.0,56.9,29.83,NW,319,0.0,9.0,96,0.05,,,0.05,VWS V14.01,2014-09-30 05:55:00,
2014-09-30 01:56:00,57.9,56.8,29.83,NW,319,2.0,9.0,96,0.05,,,0.05,VWS V14.01,2014-09-30 05:56:00,
2014-09-30 01:57:00,57.9,56.8,29.83,NW,319,0.0,9.0,96,0.05,,,0.05,VWS V14.01,2014-09-30 05:57:00,
2014-09-30 01:58:00,57.8,56.7,29.83,NW,319,0.0,9.0,96,0.05,,,0.05,VWS V14.01,2014-09-30 05:58:00,
2014-09-30 01:59:00,57.8,56.7,29.83,NW,318,0.0,9.0,96,0.05,,,0.05,VWS V14.01,2014-09-30 05:59:00,
2014-09-30 02:00:00,57.8,56.7,29.83,NW,318,1.0,9.0,96,0.05,,,0.05,VWS V14.01,2014-09-30 06:00:00,
2014-09-30 02:01:00,57.7,56.6,29.82,NW,319,0.0,6.0,96,0.04,,,0.05,VWS V14.01,2014-09-30 06:01:00,
2014-09-30 02:02:00,57.7,56.6,29.82,NW,319,0.0,6.0,96,0.04,,,0.05,VWS V14.01,2014-09-30 06:02:00,
2014-09-30 02:03:00,57.6,56.5,29.82,NW,319,0.0,6.0,96,0.04,,,0.05,VWS V14.01,2014-09-30 06:03:00,
2014-09-30 02:04:00,57.5,56.4,29.82,NW,319,0.0,6.0,96,0.04,,,0.05,VWS V14.01,2014-09-30 06:04:00,
2014-09-30 02:05:00,57.5,56.7,29.82,NW,319,0.0,6.0,97,0.04,,,0.05,VWS V14.01,2014-09-30 06:05:00,
2014-09-30 02:06:00,57.5,56.7,29.82,NW,318,0.0,6.0,97,0.04,,,0.05,VWS V14.01,2014-09-30 06:06:00,
2014-09-30 02:07:00,57.4,56.6,29.82,NW,319,0.0,6.0,97,0.04,,,0.05,VWS V14.01,2014-09-30 06:07:00,
2014-09-30 02:08:00,57.4,56.6,29.82,NW,319,0.0,6.0,97,0.04,,,0.05,VWS V14.01,2014-09-30 06:08:00,
2014-09-30 02:09:00,57.3,56.2,29.82,NW,319,0.0,6.0,96,0.04,,,0.05,VWS V14.01,2014-09-30 06:09:00,
2014-09-30 02:10:00,57.3,56.5,29.82,NW,317,1.0,6.0,97,0.04,,,0.05,VWS V14.01,2014-09-30 06:10:00,
2014-09-30 02:11:00,57.3,56.5,29.82,NW,317,0.0,6.0,97,0.04,,,0.05,VWS V14.01,2014-09-30 06:11:00,
2014-09-30 02:12:00,57.3,56.5,29.82,NW,317,0.0,6.0,97,0.04,,,0.05,VWS V14.01,2014-09-30 06:12:00,
2014-09-30 02:13:00,57.2,56.4,29.82,NW,317,0.0,6.0,97,0.04,,,0.05,VWS V14.01,2014-09-30 06:13:00,
2014-09-30 02:14:00,57.2,56.4,29.82,NW,317,0.0,6.0,97,0.04,,,0.05,VWS V14.01,2014-09-30 06:14:00,
2014-09-30 02:15:00,57.2,56.4,29.82,NW,317,0.0,6.0,97,0.04,,,0.05,VWS V14.01,2014-09-30 06:15:00,
2014-09-30 02:16:00,57.2,56.4,29.82,NW,317,1.0,6.0,97,0.04,,,0.05,VWS V14.01,2014-09-30 06:16:00,
2014-09-30 02:17:00,57.2,56.4,29.82,NW,317,0.0,6.0,97,0.04,,,0.05,VWS V14.01,2014-09-30 06:17:00,
2014-09-30 02:18:00,57.1,56.3,29.82,NW,317,0.0,6.0,97,0.04,,,0.05,VWS V14.01,2014-09-30 06:18:00,
2014-09-30 02:19:00,57.1,56.3,29.82,NW,317,0.0,6.0,97,0.04,,,0.05,VWS V14.01,2014-09-30 06:19:00,
2014-09-30 02:20:00,57.1,56.3,29.82,NW,317,0.0,6.0,97,0.05,,,0.06,VWS V14.01,2014-09-30 06:20:00,
2014-09-30 02:21:00,57.1,56.3,29.82,NW,317,0.0,6.0,97,0.05,,,0.06,VWS V14.01,2014-09-30 06:21:00,
2014-09-30 02:22:00,57.1,56.3,29.82,NW,317,0.0,6.0,97,0.05,,,0.06,VWS V14.01,2014-09-30 06:22:00,
2014-09-30 02:23:00,57.0,56.2,29.82,NW,317,0.0,6.0,97,0.05,,,0.06,VWS V14.01,2014-09-30 06:23:00,
2014-09-30 02:24:00,58.5,57.4,29.83,NW,312,0.0,9.0,96,0.03,,,0.03,VWS V14.01,2014-09-30 06:24:00,
2014-09-30 02:25:00,56.9,56.1,29.83,NW,317,0.0,6.0,97,0.05,,,0.06,VWS V14.01,2014-09-30 06:25:00,
2014-09-30 02:26:00,56.9,56.1,29.83,NW,317,0.0,6.0,97,0.05,,,0.06,VWS V14.01,2014-09-30 06:26:00,
2014-09-30 02:27:00,57.0,56.2,29.83,NW,317,3.0,6.0,97,0.05,,,0.06,VWS V14.01,2014-09-30 06:27:00,
2014-09-30 02:28:00,56.9,56.1,29.83,NW,317,0.0,6.0,97,0.05,,,0.06,VWS V14.01,2014-09-30 06:28:00,
2014-09-30 02:34:00,58.0,56.9,29.83,NW,319,1.0,9.0,96,0.05,,,0.05,VWS V14.01,2014-09-30 06:34:00,
2014-09-30 03:02:00,55.2,54.4,29.83,North,9,2.0,2.0,97,0.01,,,0.06,VWS V14.01,2014-09-30 07:02:00,
2014-09-30 03:03:00,55.2,54.4,29.83,North,360,0.0,2.0,97,0.01,,,0.06,VWS V14.01,2014-09-30 07:03:00,
2014-09-30 03:04:00,57.0,56.2,29.82,NW,317,0.0,6.0,97,0.05,,,0.06,VWS V14.01,2014-09-30 07:04:00,
2014-09-30 03:05:00,55.1,54.3,29.83,WSW,246,0.0,5.0,97,0.01,,,0.06,VWS V14.01,2014-09-30 07:05:00,
2014-09-30 03:06:00,55.1,54.3,29.83,WNW,290,0.0,5.0,97,0.01,,,0.06,VWS V14.01,2014-09-30 07:06:00,
2014-09-30 03:07:00,55.1,54.3,29.83,WNW,288,4.0,5.0,97,0.01,,,0.06,VWS V14.01,2014-09-30 07:07:00,
2014-09-30 03:08:00,55.1,54.3,29.83,West,279,2.0,6.0,97,0.01,,,0.06,VWS V14.01,2014-09-30 07:08:00,
2014-09-30 03:09:00,55.1,54.3,29.83,West,276,5.0,6.0,97,0.01,,,0.06,VWS V14.01,2014-09-30 07:09:00,
2014-09-30 03:10:00,55.0,54.2,29.83,West,276,0.0,6.0,97,0.01,,,0.06,VWS V14.01,2014-09-30 07:10:00,
2014-09-30 03:11:00,55.0,54.2,29.83,West,276,0.0,6.0,97,0.01,,,0.06,VWS V14.01,2014-09-30 07:11:00,
2014-09-30 03:12:00,55.0,54.2,29.83,WNW,292,1.0,6.0,97,0.01,,,0.06,VWS V14.01,2014-09-30 07:12:00,
2014-09-30 03:13:00,55.0,54.2,29.83,WNW,292,0.0,6.0,97,0.01,,,0.06,VWS V14.01,2014-09-30 07:13:00,
2014-09-30 03:14:00,55.0,54.2,29.83,WNW,292,0.0,6.0,97,0.01,,,0.06,VWS V14.01,2014-09-30 07:14:00,
2014-09-30 03:15:00,55.0,54.2,29.83,WNW,288,2.0,6.0,97,0.01,,,0.06,VWS V14.01,2014-09-30 07:15:00,
2014-09-30 03:16:00,55.0,54.2,29.83,WNW,288,1.0,6.0,97,0.01,,,0.06,VWS V14.01,2014-09-30 07:16:00,
2014-09-30 03:17:00,55.0,54.2,29.83,WNW,288,1.0,6.0,97,0.01,,,0.06,VWS V14.01,2014-09-30 07:17:00,
2014-09-30 03:18:00,55.0,54.2,29.83,WNW,288,1.0,6.0,97,0.01,,,0.06,VWS V14.01,2014-09-30 07:18:00,
2014-09-30 03:19:00,55.0,54.2,29.83,SW,235,1.0,11.0,97,0.01,,,0.06,VWS V14.01,2014-09-30 07:19:00,
2014-09-30 03:20:00,54.9,54.1,29.83,WSW,241,5.0,11.0,97,0.01,,,0.06,VWS V14.01,2014-09-30 07:20:00,
2014-09-30 03:21:00,54.9,54.1,29.83,WSW,252,0.0,11.0,97,0.01,,,0.06,VWS V14.01,2014-09-30 07:21:00,
2014-09-30 03:22:00,54.8,54.0,29.84,WSW,252,1.0,11.0,97,0.01,,,0.06,VWS V14.01,2014-09-30 07:22:00,
2014-09-30 03:23:00,54.8,54.0,29.84,WSW,253,1.0,11.0,97,0.01,,,0.06,VWS V14.01,2014-09-30 07:23:00,
2014-09-30 03:24:00,54.8,54.0,29.84,WNW,289,5.0,11.0,97,0.01,,,0.06,VWS V14.01,2014-09-30 07:24:00,
2014-09-30 03:25:00,54.7,53.9,29.83,WNW,289,0.0,11.0,97,0.01,,,0.06,VWS V14.01,2014-09-30 07:25:00,
2014-09-30 03:26:00,54.7,53.9,29.83,WNW,288,2.0,11.0,97,0.01,,,0.06,VWS V14.01,2014-09-30 07:26:00,
2014-09-30 03:27:00,54.6,53.8,29.83,WNW,288,0.0,11.0,97,0.01,,,0.06,VWS V14.01,2014-09-30 07:27:00,
2014-09-30 03:28:00,54.6,53.8,29.83,WNW,288,0.0,11.0,97,0.01,,,0.06,VWS V14.01,2014-09-30 07:28:00,
2014-09-30 03:29:00,54.5,53.7,29.83,WNW,288,0.0,11.0,97,0.01,,,0.06,VWS V14.01,2014-09-30 07:29:00,
2014-09-30 03:30:00,54.5,53.7,29.83,WNW,288,0.0,11.0,97,0.01,,,0.06,VWS V14.01,2014-09-30 07:30:00,
2014-09-30 03:31:00,54.4,53.6,29.83,WNW,288,0.0,11.0,97,0.01,,,0.06,VWS V14.01,2014-09-30 07:31:00,
2014-09-30 03:32:00,54.4,53.6,29.84,WNW,288,0.0,11.0,97,0.01,,,0.06,VWS V14.01,2014-09-30 07:32:00,
2014-09-30 03:33:00,54.4,53.6,29.84,WNW,288,1.0,11.0,97,0.01,,,0.06,VWS V14.01,2014-09-30 07:33:00,
2014-09-30 03:34:00,54.3,53.5,29.84,WNW,288,0.0,11.0,97,0.01,,,0.06,VWS V14.01,2014-09-30 07:34:00,
2014-09-30 03:35:00,54.2,53.4,29.84,WNW,288,1.0,11.0,97,0.01,,,0.06,VWS V14.01,2014-09-30 07:35:00,
2014-09-30 03:36:00,54.2,53.4,29.84,WNW,286,0.0,11.0,97,0.01,,,0.06,VWS V14.01,2014-09-30 07:36:00,
2014-09-30 03:37:00,54.2,53.4,29.84,WNW,286,0.0,11.0,97,0.01,,,0.06,VWS V14.01,2014-09-30 07:37:00,
2014-09-30 03:38:00,54.1,53.3,29.84,West,279,0.0,11.0,97,0.01,,,0.06,VWS V14.01,2014-09-30 07:38:00,
2014-09-30 03:39:00,54.1,53.3,29.84,West,279,0.0,11.0,97,0.01,,,0.06,VWS V14.01,2014-09-30 07:39:00,
2014-09-30 03:40:00,54.1,53.3,29.83,West,279,0.0,11.0,97,0.01,,,0.06,VWS V14.01,2014-09-30 07:40:00,
2014-09-30 03:41:00,54.0,53.2,29.84,West,279,1.0,11.0,97,0.01,,,0.06,VWS V14.01,2014-09-30 07:41:00,
2014-09-30 03:42:00,54.0,53.2,29.84,West,277,0.0,11.0,97,0.01,,,0.06,VWS V14.01,2014-09-30 07:42:00,
2014-09-30 03:43:00,54.0,53.2,29.83,West,277,4.0,11.0,97,0.01,,,0.06,VWS V14.01,2014-09-30 07:43:00,
2014-09-30 03:44:00,53.9,53.1,29.84,WNW,294,4.0,11.0,97,0.01,,,0.06,VWS V14.01,2014-09-30 07:44:00,
2014-09-30 03:45:00,53.9,53.1,29.84,WNW,293,0.0,11.0,97,0.01,,,0.06,VWS V14.01,2014-09-30 07:45:00,
2014-09-30 03:46:00,53.9,53.1,29.84,WNW,290,0.0,11.0,97,0.01,,,0.06,VWS V14.01,2014-09-30 07:46:00,
2014-09-30 03:47:00,53.8,53.0,29.83,WNW,290,5.0,11.0,97,0.01,,,0.06,VWS V14.01,2014-09-30 07:47:00,
2014-09-30 03:48:00,53.8,53.0,29.84,WNW,288,1.0,11.0,97,0.01,,,0.06,VWS V14.01,2014-09-30 07:48:00,
2014-09-30 03:49:00,53.7,52.9,29.84,WNW,286,1.0,11.0,97,0.01,,,0.06,VWS V14.01,2014-09-30 07:49:00,
2014-09-30 03:50:00,53.7,52.9,29.85,West,268,1.0,11.0,97,0.01,,,0.06,VWS V14.01,2014-09-30 07:50:00,
2014-09-30 03:51:00,53.6,52.8,29.85,West,269,1.0,11.0,97,0.01,,,0.06,VWS V14.01,2014-09-30 07:51:00,
2014-09-30 03:52:00,53.6,52.8,29.85,West,269,4.0,11.0,97,0.01,,,0.06,VWS V14.01,2014-09-30 07:52:00,
2014-09-30 03:53:00,53.6,52.8,29.84,West,269,0.0,11.0,97,0.01,,,0.06,VWS V14.01,2014-09-30 07:53:00,
2014-09-30 03:54:00,53.6,52.8,29.84,NW,314,1.0,11.0,97,0.01,,,0.06,VWS V14.01,2014-09-30 07:54:00,
2014-09-30 03:55:00,53.5,52.7,29.84,NW,313,0.0,11.0,97,0.01,,,0.06,VWS V14.01,2014-09-30 07:55:00,
2014-09-30 03:56:00,53.5,52.7,29.84,NW,313,0.0,11.0,97,0.01,,,0.06,VWS V14.01,2014-09-30 07:56:00,
2014-09-30 03:57:00,53.5,52.7,29.84,NW,312,4.0,11.0,97,0.01,,,0.06,VWS V14.01,2014-09-30 07:57:00,
2014-09-30 03:58:00,53.4,52.6,29.84,WSW,246,5.0,11.0,97,0.01,,,0.06,VWS V14.01,2014-09-30 07:58:00,
2014-09-30 03:59:00,53.4,52.6,29.85,NW,321,7.0,11.0,97,0.01,,,0.06,VWS V14.01,2014-09-30 07:59:00,
2014-09-30 04:00:00,53.4,52.6,29.85,WNW,300,6.0,11.0,97,0.01,,,0.06,VWS V14.01,2014-09-30 08:00:00,
2014-09-30 04:01:00,53.3,52.5,29.85,WSW,250,2.0,7.0,97,0.00,,,0.06,VWS V14.01,2014-09-30 08:01:00,
2014-09-30 04:02:00,53.3,52.5,29.85,WSW,250,0.0,7.0,97,0.00,,,0.06,VWS V14.01,2014-09-30 08:02:00,
2014-09-30 04:03:00,53.2,52.4,29.85,WNW,301,3.0,7.0,97,0.00,,,0.06,VWS V14.01,2014-09-30 08:03:00,
2014-09-30 04:04:00,53.2,52.4,29.85,North,355,10.0,10.0,97,0.00,,,0.06,VWS V14.01,2014-09-30 08:04:00,
2014-09-30 04:05:00,53.1,52.3,29.85,WSW,238,0.0,10.0,97,0.00,,,0.06,VWS V14.01,2014-09-30 08:05:00,
2014-09-30 04:06:00,53.1,52.3,29.85,WSW,238,0.0,10.0,97,0.00,,,0.06,VWS V14.01,2014-09-30 08:06:00,
2014-09-30 04:07:00,53.0,52.2,29.85,WSW,239,0.0,10.0,97,0.00,,,0.06,VWS V14.01,2014-09-30 08:07:00,
2014-09-30 04:08:00,53.0,52.2,29.85,WSW,240,0.0,10.0,97,0.00,,,0.06,VWS V14.01,2014-09-30 08:08:00,
2014-09-30 04:09:00,53.0,52.2,29.85,NNW,329,5.0,11.0,97,0.00,,,0.06,VWS V14.01,2014-09-30 08:09:00,
2014-09-30 04:10:00,54.5,53.7,29.83,WNW,288,0.0,11.0,97,0.01,,,0.06,VWS V14.01,2014-09-30 08:10:00,
2014-09-30 04:11:00,52.8,52.0,29.85,NW,313,10.0,18.0,97,0.00,,,0.06,VWS V14.01,2014-09-30 08:11:00,
2014-09-30 04:12:00,52.8,52.0,29.85,NNW,333,1.0,18.0,97,0.00,,,0.06,VWS V14.01,2014-09-30 08:12:00,
2014-09-30 04:13:00,52.7,51.9,29.85,West,274,0.0,18.0,97,0.00,,,0.06,VWS V14.01,2014-09-30 08:13:00,
2014-09-30 04:14:00,52.6,51.8,29.84,West,272,2.0,18.0,97,0.00,,,0.06,VWS V14.01,2014-09-30 08:14:00,
2014-09-30 04:15:00,52.5,51.7,29.85,WNW,284,8.0,18.0,97,0.00,,,0.06,VWS V14.01,2014-09-30 08:15:00,
2014-09-30 04:16:00,52.4,51.6,29.84,NW,317,0.0,18.0,97,0.00,,,0.06,VWS V14.01,2014-09-30 08:16:00,
2014-09-30 04:17:00,52.4,51.6,29.85,WSW,250,0.0,18.0,97,0.00,,,0.06,VWS V14.01,2014-09-30 08:17:00,
2014-09-30 04:18:00,52.3,51.5,29.84,WSW,237,0.0,18.0,97,0.00,,,0.06,VWS V14.01,2014-09-30 08:18:00,
2014-09-30 04:19:00,52.3,51.5,29.84,WSW,246,5.0,18.0,97,0.00,,,0.06,VWS V14.01,2014-09-30 08:19:00,
2014-09-30 04:20:00,52.3,51.5,29.84,WSW,255,1.0,18.0,97,0.00,,,0.06,VWS V14.01,2014-09-30 08:20:00,
2014-09-30 04:21:00,52.2,51.4,29.84,WSW,257,0.0,18.0,97,0.00,,,0.06,VWS V14.01,2014-09-30 08:21:00,
2014-09-30 04:22:00,52.2,51.7,29.84,NNW,338,6.0,18.0,98,0.00,,,0.06,VWS V14.01,2014-09-30 08:22:00,
2014-09-30 04:23:00,52.1,51.5,29.84,NW,319,0.0,18.0,98,0.00,,,0.06,VWS V14.01,2014-09-30 08:23:00,
2014-09-30 04:24:00,52.1,51.3,29.85,WNW,302,0.0,18.0,97,0.00,,,0.06,VWS V14.01,2014-09-30 08:24:00,
2014-09-30 04:25:00,53.9,53.1,29.84,WNW,293,0.0,11.0,97,0.01,,,0.06,VWS V14.01,2014-09-30 08:25:00,
2014-09-30 04:26:00,52.0,51.2,29.85,WSW,254,1.0,18.0,97,0.00,,,0.06,VWS V14.01,2014-09-30 08:26:00,
2014-09-30 04:27:00,52.0,51.2,29.85,WSW,254,0.0,18.0,97,0.00,,,0.06,VWS V14.01,2014-09-30 08:27:00,
2014-09-30 04:28:00,51.9,51.1,29.85,WSW,244,0.0,18.0,97,0.00,,,0.06,VWS V14.01,2014-09-30 08:28:00,
2014-09-30 04:29:00,51.9,51.1,29.85,NW,326,4.0,18.0,97,0.00,,,0.06,VWS V14.01,2014-09-30 08:29:00,
2014-09-30 04:30:00,51.9,51.4,29.85,NNW,327,0.0,18.0,98,0.00,,,0.06,VWS V14.01,2014-09-30 08:30:00,
2014-09-30 04:31:00,51.9,51.4,29.85,SW,222,2.0,18.0,98,0.00,,,0.06,VWS V14.01,2014-09-30 08:31:00,
2014-09-30 04:32:00,51.9,51.4,29.85,SW,234,0.0,18.0,98,0.00,,,0.06,VWS V14.01,2014-09-30 08:32:00,
2014-09-30 04:33:00,51.9,51.4,29.85,WSW,246,0.0,18.0,98,0.00,,,0.06,VWS V14.01,2014-09-30 08:33:00,
2014-09-30 04:34:00,51.9,51.4,29.85,WSW,246,0.0,18.0,98,0.00,,,0.06,VWS V14.01,2014-09-30 08:34:00,
2014-09-30 04:35:00,51.8,51.3,29.85,West,260,4.0,18.0,98,0.00,,,0.06,VWS V14.01,2014-09-30 08:35:00,
2014-09-30 04:36:00,53.5,52.7,29.84,NW,313,0.0,11.0,97,0.01,,,0.06,VWS V14.01,2014-09-30 08:36:00,
2014-09-30 04:37:00,51.8,51.3,29.85,NW,311,4.0,18.0,98,0.00,,,0.06,VWS V14.01,2014-09-30 08:37:00,
2014-09-30 04:38:00,51.8,51.3,29.85,NW,309,0.0,18.0,98,0.00,,,0.06,VWS V14.01,2014-09-30 08:38:00,
2014-09-30 04:39:00,51.8,51.3,29.85,WNW,284,1.0,18.0,98,0.00,,,0.06,VWS V14.01,2014-09-30 08:39:00,
2014-09-30 04:40:00,51.7,51.2,29.85,WNW,284,0.0,18.0,98,0.00,,,0.06,VWS V14.01,2014-09-30 08:40:00,
2014-09-30 04:41:00,51.7,51.2,29.85,WNW,284,0.0,18.0,98,0.00,,,0.06,VWS V14.01,2014-09-30 08:41:00,
2014-09-30 04:42:00,51.7,51.2,29.85,WNW,289,1.0,18.0,98,0.00,,,0.06,VWS V14.01,2014-09-30 08:42:00,
2014-09-30 04:43:00,51.7,51.2,29.85,WNW,295,0.0,18.0,98,0.00,,,0.06,VWS V14.01,2014-09-30 08:43:00,
2014-09-30 04:44:00,51.7,51.2,29.86,WNW,295,0.0,18.0,98,0.00,,,0.06,VWS V14.01,2014-09-30 08:44:00,
2014-09-30 04:45:00,51.7,51.2,29.86,WNW,295,3.0,18.0,98,0.00,,,0.06,VWS V14.01,2014-09-30 08:45:00,
2014-09-30 04:46:00,51.7,51.2,29.86,NW,319,0.0,18.0,98,0.00,,,0.06,VWS V14.01,2014-09-30 08:46:00,
2014-09-30 04:47:00,51.6,51.1,29.86,WNW,295,0.0,18.0,98,0.00,,,0.06,VWS V14.01,2014-09-30 08:47:00,
2014-09-30 04:48:00,51.6,51.1,29.86,NW,313,1.0,18.0,98,0.00,,,0.06,VWS V14.01,2014-09-30 08:48:00,
2014-09-30 04:49:00,51.5,51.0,29.86,NW,312,0.0,18.0,98,0.00,,,0.06,VWS V14.01,2014-09-30 08:49:00,
2014-09-30 04:50:00,51.4,50.9,29.86,WNW,295,0.0,18.0,98,0.00,,,0.06,VWS V14.01,2014-09-30 08:50:00,
2014-09-30 04:51:00,51.4,50.9,29.86,SW,214,5.0,18.0,98,0.00,,,0.06,VWS V14.01,2014-09-30 08:51:00,
2014-09-30 04:52:00,51.3,50.8,29.86,West,259,0.0,18.0,98,0.00,,,0.06,VWS V14.01,2014-09-30 08:52:00,
2014-09-30 04:53:00,52.7,51.9,29.85,West,273,1.0,18.0,97,0.00,,,0.06,VWS V14.01,2014-09-30 08:53:00,
2014-09-30 04:54:00,51.2,50.7,29.86,SSW,197,0.0,18.0,98,0.00,,,0.06,VWS V14.01,2014-09-30 08:54:00,
2014-09-30 04:55:00,51.1,50.6,29.86,SSE,161,2.0,18.0,98,0.00,,,0.06,VWS V14.01,2014-09-30 08:55:00,
2014-09-30 04:56:00,51.0,50.5,29.86,NW,321,7.0,18.0,98,0.00,,,0.06,VWS V14.01,2014-09-30 08:56:00,
2014-09-30 04:57:00,51.0,50.5,29.86,WNW,292,1.0,18.0,98,0.00,,,0.06,VWS V14.01,2014-09-30 08:57:00,
2014-09-30 04:58:00,50.9,50.4,29.86,WNW,283,4.0,18.0,98,0.00,,,0.06,VWS V14.01,2014-09-30 08:58:00,
2014-09-30 04:59:00,50.9,50.4,29.86,WNW,282,2.0,18.0,98,0.00,,,0.06,VWS V14.01,2014-09-30 08:59:00,
2014-09-30 05:00:00,50.9,50.1,29.86,NNW,333,0.0,18.0,97,0.00,,,0.06,VWS V14.01,2014-09-30 09:00:00,
2014-09-30 05:01:00,50.8,50.0,29.86,North,5,0.0,1.0,97,0.00,,,0.06,VWS V14.01,2014-09-30 09:01:00,
2014-09-30 05:02:00,52.2,51.7,29.84,NNW,338,6.0,18.0,98,0.00,,,0.06,VWS V14.01,2014-09-30 09:02:00,
2014-09-30 05:03:00,50.8,50.0,29.86,WNW,290,4.0,8.0,97,0.00,,,0.06,VWS V14.01,2014-09-30 09:03:00,
2014-09-30 05:04:00,50.7,49.9,29.86,WNW,290,0.0,8.0,97,0.00,,,0.06,VWS V14.01,2014-09-30 09:04:00,
2014-09-30 05:05:00,50.7,49.9,29.87,NNE,22,4.0,8.0,97,0.00,,,0.06,VWS V14.01,2014-09-30 09:05:00,
2014-09-30 05:06:00,50.7,49.9,29.86,NNE,22,0.0,8.0,97,0.00,,,0.06,VWS V14.01,2014-09-30 09:06:00,
2014-09-30 05:07:00,50.7,49.9,29.86,NNE,23,0.0,8.0,97,0.00,,,0.06,VWS V14.01,2014-09-30 09:07:00,
2014-09-30 05:08:00,50.7,50.2,29.86,NNE,19,0.0,8.0,98,0.00,,,0.06,VWS V14.01,2014-09-30 09:08:00,
2014-09-30 05:09:00,50.7,50.2,29.86,NNE,25,0.0,8.0,98,0.00,,,0.06,VWS V14.01,2014-09-30 09:09:00,
2014-09-30 05:10:00,50.7,50.2,29.86,NE,41,0.0,8.0,98,0.00,,,0.06,VWS V14.01,2014-09-30 09:10:00,
2014-09-30 05:11:00,50.7,50.2,29.86,NE,42,0.0,8.0,98,0.00,,,0.06,VWS V14.01,2014-09-30 09:11:00,
2014-09-30 05:12:00,50.7,50.2,29.86,NE,41,0.0,8.0,98,0.00,,,0.06,VWS V14.01,2014-09-30 09:12:00,
2014-09-30 05:13:00,50.7,50.2,29.86,NNE,28,3.0,8.0,98,0.00,,,0.06,VWS V14.01,2014-09-30 09:13:00,
2014-09-30 05:14:00,50.8,50.3,29.86,NW,325,1.0,8.0,98,0.00,,,0.06,VWS V14.01,2014-09-30 09:14:00,
2014-09-30 05:15:00,50.8,50.3,29.86,West,262,0.0,8.0,98,0.00,,,0.06,VWS V14.01,2014-09-30 09:15:00,
2014-09-30 05:16:00,50.8,50.3,29.87,West,262,0.0,8.0,98,0.00,,,0.06,VWS V14.01,2014-09-30 09:16:00,
2014-09-30 05:17:00,50.8,50.3,29.87,West,261,0.0,8.0,98,0.00,,,0.06,VWS V14.01,2014-09-30 09:17:00,
2014-09-30 05:18:00,50.8,50.3,29.87,West,261,0.0,8.0,98,0.00,,,0.06,VWS V14.01,2014-09-30 09:18:00,
2014-09-30 05:19:00,50.8,50.3,29.87,North,350,0.0,8.0,98,0.00,,,0.06,VWS V14.01,2014-09-30 09:19:00,
2014-09-30 05:20:00,50.8,50.3,29.87,North,350,0.0,8.0,98,0.00,,,0.06,VWS V14.01,2014-09-30 09:20:00,
2014-09-30 05:21:00,50.8,50.3,29.87,North,350,0.0,8.0,98,0.00,,,0.06,VWS V14.01,2014-09-30 09:21:00,
2014-09-30 05:22:00,50.8,50.3,29.87,NNW,338,4.0,8.0,98,0.00,,,0.06,VWS V14.01,2014-09-30 09:22:00,
2014-09-30 05:23:00,50.8,50.3,29.87,NNW,339,0.0,8.0,98,0.00,,,0.06,VWS V14.01,2014-09-30 09:23:00,
2014-09-30 05:24:00,50.8,50.3,29.87,NNW,333,0.0,8.0,98,0.00,,,0.06,VWS V14.01,2014-09-30 09:24:00,
2014-09-30 05:25:00,51.7,51.2,29.86,WNW,295,4.0,18.0,98,0.00,,,0.06,VWS V14.01,2014-09-30 09:25:00,
2014-09-30 05:26:00,50.8,50.3,29.87,NW,305,1.0,8.0,98,0.00,,,0.06,VWS V14.01,2014-09-30 09:26:00,
2014-09-30 05:27:00,50.8,50.3,29.87,West,269,1.0,8.0,98,0.00,,,0.06,VWS V14.01,2014-09-30 09:27:00,
2014-09-30 05:28:00,50.8,50.3,29.87,West,266,8.0,8.0,98,0.00,,,0.06,VWS V14.01,2014-09-30 09:28:00,
2014-09-30 05:29:00,50.8,50.3,29.87,WSW,252,1.0,8.0,98,0.00,,,0.06,VWS V14.01,2014-09-30 09:29:00,
2014-09-30 05:30:00,50.8,50.3,29.87,WSW,253,0.0,8.0,98,0.00,,,0.06,VWS V14.01,2014-09-30 09:30:00,
2014-09-30 05:31:00,50.8,50.3,29.87,WSW,253,0.0,8.0,98,0.00,,,0.06,VWS V14.01,2014-09-30 09:31:00,
2014-09-30 05:32:00,50.8,50.3,29.87,WSW,257,3.0,8.0,98,0.00,,,0.06,VWS V14.01,2014-09-30 09:32:00,
2014-09-30 05:33:00,50.8,50.3,29.87,WSW,258,0.0,8.0,98,0.00,,,0.06,VWS V14.01,2014-09-30 09:33:00,
2014-09-30 05:34:00,50.8,50.3,29.87,WSW,258,0.0,8.0,98,0.00,,,0.06,VWS V14.01,2014-09-30 09:34:00,
2014-09-30 05:35:00,51.1,50.6,29.86,SSW,196,0.0,18.0,98,0.00,,,0.06,VWS V14.01,2014-09-30 09:35:00,
2014-09-30 05:36:00,50.8,50.3,29.87,WNW,289,0.0,8.0,98,0.00,,,0.06,VWS V14.01,2014-09-30 09:36:00,
2014-09-30 05:37:00,50.8,50.3,29.87,WNW,289,0.0,8.0,98,0.00,,,0.06,VWS V14.01,2014-09-30 09:37:00,
2014-09-30 05:38:00,50.8,50.3,29.87,WNW,288,0.0,8.0,98,0.00,,,0.06,VWS V14.01,2014-09-30 09:38:00,
2014-09-30 05:39:00,50.8,50.3,29.87,WNW,288,0.0,8.0,98,0.00,,,0.06,VWS V14.01,2014-09-30 09:39:00,
2014-09-30 05:40:00,50.8,50.3,29.87,WNW,288,4.0,8.0,98,0.00,,,0.06,VWS V14.01,2014-09-30 09:40:00,
2014-09-30 05:41:00,50.8,50.3,29.87,WNW,289,0.0,8.0,98,0.00,,,0.06,VWS V14.01,2014-09-30 09:41:00,
2014-09-30 05:42:00,50.8,50.3,29.87,WNW,289,0.0,8.0,98,0.00,,,0.06,VWS V14.01,2014-09-30 09:42:00,
2014-09-30 05:43:00,50.8,50.3,29.87,WNW,288,0.0,8.0,98,0.00,,,0.06,VWS V14.01,2014-09-30 09:43:00,
2014-09-30 05:44:00,50.8,50.3,29.87,WNW,288,0.0,8.0,98,0.00,,,0.06,VWS V14.01,2014-09-30 09:44:00,
2014-09-30 05:45:00,50.7,50.2,29.87,WNW,287,0.0,8.0,98,0.00,,,0.06,VWS V14.01,2014-09-30 09:45:00,
2014-09-30 05:46:00,50.7,50.2,29.87,WNW,287,0.0,8.0,98,0.00,,,0.06,VWS V14.01,2014-09-30 09:46:00,
2014-09-30 05:47:00,50.7,50.2,29.87,WNW,287,0.0,8.0,98,0.00,,,0.06,VWS V14.01,2014-09-30 09:47:00,
2014-09-30 05:48:00,50.7,50.2,29.87,WNW,288,0.0,8.0,98,0.00,,,0.06,VWS V14.01,2014-09-30 09:48:00,
2014-09-30 05:49:00,50.6,50.1,29.87,WNW,288,0.0,8.0,98,0.00,,,0.06,VWS V14.01,2014-09-30 09:49:00,
2014-09-30 05:50:00,50.6,50.1,29.87,WNW,288,0.0,8.0,98,0.01,,,0.07,VWS V14.01,2014-09-30 09:50:00,
2014-09-30 05:51:00,50.6,50.1,29.87,WNW,288,3.0,8.0,98,0.01,,,0.07,VWS V14.01,2014-09-30 09:51:00,
2014-09-30 05:52:00,50.5,50.0,29.87,NNW,345,7.0,8.0,98,0.01,,,0.07,VWS V14.01,2014-09-30 09:52:00,
2014-09-30 05:53:00,50.5,50.0,29.87,WNW,299,2.0,9.0,98,0.01,,,0.07,VWS V14.01,2014-09-30 09:53:00,
2014-09-30 05:54:00,50.4,49.9,29.87,WSW,248,0.0,9.0,98,0.01,,,0.07,VWS V14.01,2014-09-30 09:54:00,
2014-09-30 05:55:00,50.4,49.9,29.87,West,267,0.0,9.0,98,0.01,,,0.07,VWS V14.01,2014-09-30 09:55:00,
2014-09-30 05:56:00,50.4,49.9,29.87,WNW,286,3.0,9.0,98,0.01,,,0.07,VWS V14.01,2014-09-30 09:56:00,
2014-09-30 05:57:00,50.3,49.8,29.87,NW,307,6.0,9.0,98,0.01,,,0.07,VWS V14.01,2014-09-30 09:57:00,
2014-09-30 05:58:00,50.3,49.8,29.87,NW,306,0.0,9.0,98,0.01,,,0.07,VWS V14.01,2014-09-30 09:58:00,
2014-09-30 05:59:00,50.3,49.8,29.87,NW,306,0.0,9.0,98,0.01,,,0.07,VWS V14.01,2014-09-30 09:59:00,
2014-09-30 06:00:00,50.3,49.8,29.87,NW,306,0.0,9.0,98,0.01,,,0.07,VWS V14.01,2014-09-30 10:00:00,
2014-09-30 06:01:00,50.2,49.7,29.88,NW,305,2.0,6.0,98,0.01,,,0.07,VWS V14.01,2014-09-30 10:01:00,
2014-09-30 06:02:00,50.2,49.7,29.88,NW,305,0.0,6.0,98,0.01,,,0.07,VWS V14.01,2014-09-30 10:02:00,
2014-09-30 06:03:00,50.8,50.3,29.87,NNW,338,0.0,8.0,98,0.00,,,0.06,VWS V14.01,2014-09-30 10:03:00,
2014-09-30 06:04:00,50.2,49.7,29.88,NW,304,0.0,6.0,98,0.01,,,0.07,VWS V14.01,2014-09-30 10:04:00,
2014-09-30 06:05:00,50.2,49.7,29.88,NW,304,0.0,6.0,98,0.01,,,0.07,VWS V14.01,2014-09-30 10:05:00,
2014-09-30 06:06:00,50.2,49.7,29.88,NW,304,0.0,6.0,98,0.01,,,0.07,VWS V14.01,2014-09-30 10:06:00,
2014-09-30 06:07:00,50.2,49.7,29.88,NW,307,1.0,6.0,98,0.01,,,0.07,VWS V14.01,2014-09-30 10:07:00,
2014-09-30 06:08:00,50.2,49.7,29.88,NW,307,0.0,6.0,98,0.01,,,0.07,VWS V14.01,2014-09-30 10:08:00,
2014-09-30 06:09:00,50.1,49.6,29.88,WSW,242,1.0,7.0,98,0.01,,,0.07,VWS V14.01,2014-09-30 10:09:00,
2014-09-30 06:10:00,50.1,49.6,29.88,WSW,242,0.0,7.0,98,0.01,,,0.07,VWS V14.01,2014-09-30 10:10:00,
2014-09-30 06:11:00,50.8,50.3,29.87,WSW,253,0.0,8.0,98,0.00,,,0.06,VWS V14.01,2014-09-30 10:11:00,
2014-09-30 06:12:00,50.1,49.6,29.88,West,277,0.0,7.0,98,0.01,,,0.07,VWS V14.01,2014-09-30 10:12:00,
2014-09-30 06:13:00,50.1,49.6,29.88,West,281,0.0,7.0,98,0.01,,,0.07,VWS V14.01,2014-09-30 10:13:00,
2014-09-30 06:14:00,50.1,49.6,29.88,West,281,0.0,7.0,98,0.01,,,0.07,VWS V14.01,2014-09-30 10:14:00,
2014-09-30 06:15:00,50.1,49.6,29.88,WSW,245,0.0,7.0,98,0.01,,,0.07,VWS V14.01,2014-09-30 10:15:00,
2014-09-30 06:16:00,50.1,49.6,29.88,West,265,4.0,7.0,98,0.01,,,0.07,VWS V14.01,2014-09-30 10:16:00,
2014-09-30 06:17:00,50.1,49.6,29.88,WNW,294,1.0,7.0,98,0.01,,,0.07,VWS V14.01,2014-09-30 10:17:00,
2014-09-30 06:18:00,50.1,49.6,29.88,WNW,294,0.0,7.0,98,0.01,,,0.07,VWS V14.01,2014-09-30 10:18:00,
2014-09-30 06:19:00,50.1,49.6,29.88,West,275,0.0,7.0,98,0.01,,,0.07,VWS V14.01,2014-09-30 10:19:00,
2014-09-30 06:20:00,50.1,49.6,29.88,West,260,0.0,7.0,98,0.01,,,0.07,VWS V14.01,2014-09-30 10:20:00,
2014-09-30 06:21:00,50.1,49.6,29.88,West,264,2.0,7.0,98,0.01,,,0.07,VWS V14.01,2014-09-30 10:21:00,
2014-09-30 06:22:00,50.1,49.6,29.88,West,264,0.0,7.0,98,0.01,,,0.07,VWS V14.01,2014-09-30 10:22:00,
2014-09-30 06:23:00,50.1,49.6,29.88,WNW,303,3.0,7.0,98,0.01,,,0.07,VWS V14.01,2014-09-30 10:23:00,
2014-09-30 06:24:00,50.1,49.6,29.88,West,279,2.0,7.0,98,0.01,,,0.07,VWS V14.01,2014-09-30 10:24:00,
2014-09-30 06:25:00,50.1,49.6,29.88,WNW,294,1.0,7.0,98,0.01,,,0.07,VWS V14.01,2014-09-30 10:25:00,
2014-09-30 06:26:00,50.7,50.2,29.87,WNW,288,0.0,8.0,98,0.00,,,0.06,VWS V14.01,2014-09-30 10:26:00,
2014-09-30 06:27:00,50.1,49.6,29.88,WNW,283,0.0,7.0,98,0.01,,,0.07,VWS V14.01,2014-09-30 10:27:00,
2014-09-30 06:28:00,50.1,49.6,29.88,West,263,0.0,7.0,98,0.01,,,0.07,VWS V14.01,2014-09-30 10:28:00,
2014-09-30 06:29:00,50.1,49.6,29.88,West,265,1.0,7.0,98,0.01,,,0.07,VWS V14.01,2014-09-30 10:29:00,
2014-09-30 06:30:00,50.1,49.6,29.88,West,270,2.0,7.0,98,0.01,,,0.07,VWS V14.01,2014-09-30 10:30:00,
2014-09-30 06:31:00,50.1,49.6,29.88,West,270,1.0,7.0,98,0.01,,,0.07,VWS V14.01,2014-09-30 10:31:00,
2014-09-30 06:32:00,50.1,49.6,29.88,West,267,0.0,7.0,98,0.01,,,0.07,VWS V14.01,2014-09-30 10:32:00,
2014-09-30 06:33:00,50.1,49.6,29.88,West,267,0.0,7.0,98,0.01,,,0.07,VWS V14.01,2014-09-30 10:33:00,
2014-09-30 06:34:00,50.1,49.6,29.88,West,267,0.0,7.0,98,0.01,,,0.07,VWS V14.01,2014-09-30 10:34:00,
2014-09-30 06:35:00,50.1,49.6,29.88,West,267,0.0,7.0,98,0.01,,,0.07,VWS V14.01,2014-09-30 10:35:00,
2014-09-30 06:36:00,50.1,49.6,29.88,West,267,0.0,7.0,98,0.01,,,0.07,VWS V14.01,2014-09-30 10:36:00,
2014-09-30 06:37:00,50.2,49.7,29.88,West,267,0.0,7.0,98,0.01,,,0.07,VWS V14.01,2014-09-30 10:37:00,
2014-09-30 06:38:00,50.2,49.7,29.88,West,265,4.0,7.0,98,0.01,,,0.07,VWS V14.01,2014-09-30 10:38:00,
2014-09-30 06:39:00,50.3,49.8,29.87,NW,306,0.0,9.0,98,0.01,,,0.07,VWS V14.01,2014-09-30 10:39:00,
2014-09-30 06:40:00,50.2,49.7,29.88,West,264,0.0,7.0,98,0.01,,,0.07,VWS V14.01,2014-09-30 10:40:00,
2014-09-30 06:41:00,50.3,49.8,29.88,WNW,292,4.0,7.0,98,0.01,,,0.07,VWS V14.01,2014-09-30 10:41:00,
2014-09-30 06:42:00,50.3,49.8,29.88,WNW,292,1.0,7.0,98,0.01,,,0.07,VWS V14.01,2014-09-30 10:42:00,
2014-09-30 06:43:00,50.3,49.8,29.88,WNW,296,0.0,7.0,98,0.01,,,0.07,VWS V14.01,2014-09-30 10:43:00,
2014-09-30 06:44:00,50.3,49.8,29.88,WNW,296,0.0,7.0,98,0.01,,,0.07,VWS V14.01,2014-09-30 10:44:00,
2014-09-30 06:45:00,50.3,49.8,29.88,WNW,296,2.0,7.0,98,0.01,,,0.07,VWS V14.01,2014-09-30 10:45:00,
2014-09-30 06:46:00,50.3,49.8,29.88,WNW,295,0.0,7.0,98,0.01,,,0.07,VWS V14.01,2014-09-30 10:46:00,
2014-09-30 06:47:00,50.3,49.8,29.88,WNW,295,0.0,7.0,98,0.01,,,0.07,VWS V14.01,2014-09-30 10:47:00,
2014-09-30 06:48:00,50.3,49.8,29.88,WNW,296,0.0,7.0,98,0.01,,,0.07,VWS V14.01,2014-09-30 10:48:00,
2014-09-30 06:49:00,50.3,49.8,29.88,WSW,258,0.0,7.0,98,0.01,,,0.07,VWS V14.01,2014-09-30 10:49:00,
2014-09-30 06:50:00,50.3,49.8,29.88,West,259,4.0,7.0,98,0.01,,,0.07,VWS V14.01,2014-09-30 10:50:00,
2014-09-30 06:51:00,50.3,49.8,29.88,West,259,0.0,7.0,98,0.01,,,0.07,VWS V14.01,2014-09-30 10:51:00,
2014-09-30 06:52:00,50.3,49.8,29.89,West,259,0.0,7.0,98,0.01,,,0.07,VWS V14.01,2014-09-30 10:52:00,
2014-09-30 06:53:00,50.3,49.8,29.88,West,259,0.0,7.0,98,0.01,,,0.07,VWS V14.01,2014-09-30 10:53:00,
2014-09-30 06:54:00,50.4,49.9,29.88,West,259,0.0,7.0,98,0.01,,,0.07,VWS V14.01,2014-09-30 10:54:00,
2014-09-30 06:55:00,50.4,49.9,29.88,West,259,1.0,7.0,98,0.01,,,0.07,VWS V14.01,2014-09-30 10:55:00,
2014-09-30 06:56:00,50.4,49.9,29.88,West,259,2.0,7.0,98,0.01,,,0.07,VWS V14.01,2014-09-30 10:56:00,
2014-09-30 06:57:00,50.4,49.9,29.89,West,259,1.0,7.0,98,0.01,,,0.07,VWS V14.01,2014-09-30 10:57:00,
2014-09-30 06:58:00,50.4,49.9,29.89,West,259,0.0,7.0,98,0.01,,,0.07,VWS V14.01,2014-09-30 10:58:00,
2014-09-30 06:59:00,50.4,49.9,29.88,West,259,0.0,7.0,98,0.01,,,0.07,VWS V14.01,2014-09-30 10:59:00,
2014-09-30 07:00:00,50.4,49.9,29.89,West,265,0.0,7.0,98,0.01,,,0.07,VWS V14.01,2014-09-30 11:00:00,
2014-09-30 07:01:00,50.4,49.9,29.89,WSW,254,2.0,2.0,98,0.00,,,0.07,VWS V14.01,2014-09-30 11:01:00,
2014-09-30 07:02:00,50.4,49.9,29.89,West,271,0.0,7.0,98,0.00,,,0.07,VWS V14.01,2014-09-30 11:02:00,
2014-09-30 07:03:00,50.4,49.9,29.89,West,271,0.0,7.0,98,0.00,,,0.07,VWS V14.01,2014-09-30 11:03:00,
2014-09-30 07:04:00,50.1,49.6,29.88,West,279,2.0,7.0,98,0.01,,,0.07,VWS V14.01,2014-09-30 11:04:00,
2014-09-30 07:05:00,50.4,49.9,29.89,NW,323,0.0,7.0,98,0.00,,,0.07,VWS V14.01,2014-09-30 11:05:00,
2014-09-30 07:06:00,50.4,49.9,29.89,NW,322,4.0,7.0,98,0.00,,,0.07,VWS V14.01,2014-09-30 11:06:00,
2014-09-30 07:07:00,50.4,49.9,29.89,NW,319,0.0,7.0,98,0.00,,,0.07,VWS V14.01,2014-09-30 11:07:00,
2014-09-30 07:08:00,50.4,49.9,29.89,NW,319,0.0,7.0,98,0.00,,,0.07,VWS V14.01,2014-09-30 11:08:00,
2014-09-30 07:09:00,50.4,49.9,29.89,NW,318,2.0,7.0,98,0.00,,,0.07,VWS V14.01,2014-09-30 11:09:00,
2014-09-30 07:10:00,50.4,49.9,29.90,NW,319,0.0,7.0,98,0.00,,,0.07,VWS V14.01,2014-09-30 11:10:00,
2014-09-30 07:11:00,50.5,50.0,29.90,NW,315,4.0,7.0,98,0.00,,,0.07,VWS V14.01,2014-09-30 11:11:00,
2014-09-30 07:12:00,50.5,50.0,29.90,NW,314,2.0,7.0,98,0.00,,,0.07,VWS V14.01,2014-09-30 11:12:00,
2014-09-30 07:13:00,50.4,49.9,29.90,NW,313,0.0,7.0,98,0.00,,,0.07,VWS V14.01,2014-09-30 11:13:00,
2014-09-30 07:14:00,50.4,49.9,29.90,NW,313,2.0,7.0,98,0.00,,,0.07,VWS V14.01,2014-09-30 11:14:00,
2014-09-30 07:15:00,50.4,49.9,29.90,NW,313,4.0,7.0,98,0.00,,,0.07,VWS V14.01,2014-09-30 11:15:00,
2014-09-30 07:16:00,50.4,49.9,29.90,NW,313,1.0,7.0,98,0.00,,,0.07,VWS V14.01,2014-09-30 11:16:00,
2014-09-30 07:17:00,50.4,49.9,29.90,NW,313,0.0,7.0,98,0.00,,,0.07,VWS V14.01,2014-09-30 11:17:00,
2014-09-30 07:18:00,50.4,49.9,29.90,NW,313,0.0,7.0,98,0.00,,,0.07,VWS V14.01,2014-09-30 11:18:00,
2014-09-30 07:19:00,50.4,49.9,29.90,NW,313,1.0,7.0,98,0.00,,,0.07,VWS V14.01,2014-09-30 11:19:00,
2014-09-30 07:20:00,50.4,49.9,29.90,NW,313,2.0,7.0,98,0.00,,,0.07,VWS V14.01,2014-09-30 11:20:00,
2014-09-30 07:21:00,50.5,50.0,29.90,West,260,3.0,8.0,98,0.00,,,0.07,VWS V14.01,2014-09-30 11:21:00,
2014-09-30 07:22:00,50.3,49.8,29.88,WNW,292,2.0,7.0,98,0.01,,,0.07,VWS V14.01,2014-09-30 11:22:00,
2014-09-30 07:23:00,50.4,49.9,29.90,West,271,2.0,8.0,98,0.00,,,0.07,VWS V14.01,2014-09-30 11:23:00,
2014-09-30 07:24:00,50.4,49.9,29.90,West,267,0.0,8.0,98,0.00,,,0.07,VWS V14.01,2014-09-30 11:24:00,
2014-09-30 07:25:00,50.4,49.9,29.90,West,267,0.0,8.0,98,0.00,,,0.07,VWS V14.01,2014-09-30 11:25:00,
2014-09-30 07:26:00,50.5,50.0,29.90,WNW,294,0.0,8.0,98,0.00,,,0.07,VWS V14.01,2014-09-30 11:26:00,
2014-09-30 07:27:00,50.5,50.0,29.90,WNW,294,0.0,8.0,98,0.00,,,0.07,VWS V14.01,2014-09-30 11:27:00,
2014-09-30 07:28:00,50.5,50.0,29.90,WNW,294,0.0,8.0,98,0.00,,,0.07,VWS V14.01,2014-09-30 11:28:00,
2014-09-30 07:29:00,50.5,50.0,29.90,WNW,294,0.0,8.0,98,0.00,,,0.07,VWS V14.01,2014-09-30 11:29:00,
2014-09-30 07:30:00,50.5,50.0,29.90,WNW,294,0.0,8.0,98,0.00,,,0.07,VWS V14.01,2014-09-30 11:30:00,
2014-09-30 07:31:00,50.5,50.0,29.90,WNW,294,0.0,8.0,98,0.00,,,0.07,VWS V14.01,2014-09-30 11:31:00,
2014-09-30 07:32:00,50.5,50.0,29.90,WNW,294,0.0,8.0,98,0.00,,,0.07,VWS V14.01,2014-09-30 11:32:00,
2014-09-30 07:33:00,50.5,50.0,29.90,WNW,294,0.0,8.0,98,0.00,,,0.07,VWS V14.01,2014-09-30 11:33:00,
2014-09-30 07:34:00,50.6,50.1,29.90,WNW,294,0.0,8.0,98,0.00,,,0.07,VWS V14.01,2014-09-30 11:34:00,
2014-09-30 07:35:00,50.4,49.9,29.88,West,259,0.0,7.0,98,0.01,,,0.07,VWS V14.01,2014-09-30 11:35:00,
2014-09-30 07:36:00,50.6,50.1,29.90,WNW,294,0.0,8.0,98,0.00,,,0.07,VWS V14.01,2014-09-30 11:36:00,
2014-09-30 07:37:00,50.6,50.1,29.90,WNW,293,0.0,8.0,98,0.00,,,0.07,VWS V14.01,2014-09-30 11:37:00,
2014-09-30 07:38:00,50.7,50.2,29.90,WNW,293,0.0,8.0,98,0.00,,,0.07,VWS V14.01,2014-09-30 11:38:00,
2014-09-30 07:39:00,50.7,50.2,29.90,WNW,292,4.0,8.0,98,0.00,,,0.07,VWS V14.01,2014-09-30 11:39:00,
2014-09-30 07:40:00,50.7,50.2,29.90,SE,144,0.0,8.0,98,0.00,,,0.07,VWS V14.01,2014-09-30 11:40:00,
2014-09-30 07:41:00,50.7,50.2,29.90,SE,144,0.0,8.0,98,0.00,,,0.07,VWS V14.01,2014-09-30 11:41:00,
2014-09-30 07:42:00,50.7,50.2,29.90,SE,144,0.0,8.0,98,0.00,,,0.07,VWS V14.01,2014-09-30 11:42:00,
2014-09-30 07:43:00,50.7,50.2,29.90,SE,142,0.0,8.0,98,0.00,,,0.07,VWS V14.01,2014-09-30 11:43:00,
2014-09-30 07:44:00,50.7,50.2,29.90,NNW,340,4.0,8.0,98,0.00,,,0.07,VWS V14.01,2014-09-30 11:44:00,
2014-09-30 07:45:00,50.6,50.1,29.90,WNW,303,2.0,8.0,98,0.00,,,0.07,VWS V14.01,2014-09-30 11:45:00,
2014-09-30 07:46:00,50.6,50.1,29.90,NNE,31,2.0,8.0,98,0.00,,,0.07,VWS V14.01,2014-09-30 11:46:00,
2014-09-30 07:47:00,50.6,50.1,29.90,WNW,296,6.0,8.0,98,0.00,,,0.07,VWS V14.01,2014-09-30 11:47:00,
2014-09-30 07:48:00,50.6,50.1,29.90,North,360,0.0,8.0,98,0.00,,,0.07,VWS V14.01,2014-09-30 11:48:00,
2014-09-30 07:49:00,50.6,50.1,29.90,North,360,0.0,8.0,98,0.00,,,0.07,VWS V14.01,2014-09-30 11:49:00,
2014-09-30 07:50:00,50.6,50.1,29.90,NNW,346,1.0,8.0,98,0.00,,,0.07,VWS V14.01,2014-09-30 11:50:00,
2014-09-30 07:51:00,50.6,50.1,29.90,NW,312,0.0,8.0,98,0.00,,,0.07,VWS V14.01,2014-09-30 11:51:00,
2014-09-30 07:52:00,50.6,50.1,29.90,NW,313,0.0,8.0,98,0.00,,,0.07,VWS V14.01,2014-09-30 11:52:00,
2014-09-30 07:53:00,50.6,50.1,29.90,NW,313,0.0,8.0,98,0.00,,,0.07,VWS V14.01,2014-09-30 11:53:00,
2014-09-30 07:54:00,50.6,50.1,29.90,NW,313,0.0,8.0,98,0.00,,,0.07,VWS V14.01,2014-09-30 11:54:00,
2014-09-30 07:55:00,50.7,50.2,29.90,NW,313,1.0,8.0,98,0.00,,,0.07,VWS V14.01,2014-09-30 11:55:00,
2014-09-30 07:56:00,50.7,50.2,29.90,NW,313,0.0,8.0,98,0.00,,,0.07,VWS V14.01,2014-09-30 11:56:00,
2014-09-30 07:57:00,50.4,49.9,29.90,NW,313,0.0,7.0,98,0.00,,,0.07,VWS V14.01,2014-09-30 11:57:00,
2014-09-30 07:58:00,50.7,50.2,29.90,NW,313,0.0,8.0,98,0.00,,,0.07,VWS V14.01,2014-09-30 11:58:00,
2014-09-30 07:59:00,50.7,50.2,29.90,WNW,303,6.0,8.0,98,0.00,,,0.07,VWS V14.01,2014-09-30 11:59:00,
2014-09-30 08:00:00,50.8,50.3,29.90,WNW,303,0.0,8.0,98,0.00,,,0.07,VWS V14.01,2014-09-30 12:00:00,
2014-09-30 08:01:00,50.8,50.3,29.90,WNW,303,0.0,1.0,98,0.00,,,0.07,VWS V14.01,2014-09-30 12:01:00,
2014-09-30 08:02:00,50.8,50.3,29.90,WNW,300,0.0,1.0,98,0.00,,,0.07,VWS V14.01,2014-09-30 12:02:00,
2014-09-30 08:03:00,50.8,50.3,29.90,WNW,301,1.0,1.0,98,0.00,,,0.07,VWS V14.01,2014-09-30 12:03:00,
2014-09-30 08:04:00,50.8,50.3,29.90,WSW,243,1.0,6.0,98,0.00,,,0.07,VWS V14.01,2014-09-30 12:04:00,
2014-09-30 08:05:00,50.4,49.9,29.90,West,267,0.0,8.0,98,0.00,,,0.07,VWS V14.01,2014-09-30 12:05:00,
2014-09-30 08:06:00,50.8,50.3,29.90,WSW,244,0.0,6.0,98,0.00,,,0.07,VWS V14.01,2014-09-30 12:06:00,
2014-09-30 08:07:00,50.8,50.3,29.90,WSW,244,0.0,6.0,98,0.00,,,0.07,VWS V14.01,2014-09-30 12:07:00,
2014-09-30 08:08:00,50.9,50.4,29.90,WSW,244,0.0,6.0,98,0.00,,,0.07,VWS V14.01,2014-09-30 12:08:00,
2014-09-30 08:09:00,50.9,50.4,29.90,WSW,244,0.0,6.0,98,0.00,,,0.07,VWS V14.01,2014-09-30 12:09:00,
2014-09-30 08:10:00,50.9,50.4,29.90,WSW,244,0.0,6.0,98,0.00,,,0.07,VWS V14.01,2014-09-30 12:10:00,
2014-09-30 08:11:00,51.0,50.5,29.90,WSW,244,0.0,6.0,98,0.00,,,0.07,VWS V14.01,2014-09-30 12:11:00,
2014-09-30 08:12:00,51.0,50.5,29.90,WSW,244,0.0,6.0,98,0.00,,,0.07,VWS V14.01,2014-09-30 12:12:00,
2014-09-30 08:13:00,51.0,50.5,29.90,WSW,244,0.0,6.0,98,0.00,,,0.07,VWS V14.01,2014-09-30 12:13:00,
2014-09-30 08:14:00,51.0,50.5,29.90,WSW,244,0.0,6.0,98,0.00,,,0.07,VWS V14.01,2014-09-30 12:14:00,
2014-09-30 08:15:00,51.1,50.6,29.90,WSW,244,2.0,6.0,98,0.00,,,0.07,VWS V14.01,2014-09-30 12:15:00,
2014-09-30 08:16:00,50.6,50.1,29.90,WNW,294,0.0,8.0,98,0.00,,,0.07,VWS V14.01,2014-09-30 12:16:00,
2014-09-30 08:17:00,51.1,50.6,29.90,WSW,244,4.0,6.0,98,0.00,,,0.07,VWS V14.01,2014-09-30 12:17:00,
2014-09-30 08:18:00,51.2,50.7,29.90,WSW,245,4.0,6.0,98,0.00,,,0.07,VWS V14.01,2014-09-30 12:18:00,
2014-09-30 08:19:00,51.2,50.7,29.90,WSW,245,0.0,6.0,98,0.00,,,0.07,VWS V14.01,2014-09-30 12:19:00,
2014-09-30 08:20:00,51.2,50.7,29.90,West,263,0.0,6.0,98,0.00,,,0.07,VWS V14.01,2014-09-30 12:20:00,
2014-09-30 08:21:00,51.2,50.7,29.90,West,263,0.0,6.0,98,0.00,,,0.07,VWS V14.01,2014-09-30 12:21:00,
2014-09-30 08:22:00,51.1,50.6,29.90,North,355,0.0,6.0,98,0.00,,,0.07,VWS V14.01,2014-09-30 12:22:00,
2014-09-30 08:23:00,51.2,50.7,29.90,North,355,0.0,6.0,98,0.00,,,0.07,VWS V14.01,2014-09-30 12:23:00,
2014-09-30 08:24:00,51.2,50.7,29.90,North,355,0.0,6.0,98,0.00,,,0.07,VWS V14.01,2014-09-30 12:24:00,
2014-09-30 08:25:00,51.2,50.7,29.90,North,355,0.0,6.0,98,0.00,,,0.07,VWS V14.01,2014-09-30 12:25:00,
2014-09-30 08:26:00,51.2,50.7,29.90,North,355,0.0,6.0,98,0.00,,,0.07,VWS V14.01,2014-09-30 12:26:00,
2014-09-30 08:27:00,51.2,50.7,29.90,North,355,0.0,6.0,98,0.00,,,0.07,VWS V14.01,2014-09-30 12:27:00,
2014-09-30 08:28:00,51.2,50.7,29.90,North,355,0.0,6.0,98,0.00,,,0.07,VWS V14.01,2014-09-30 12:28:00,
2014-09-30 08:29:00,51.2,50.7,29.90,North,350,1.0,6.0,98,0.00,,,0.07,VWS V14.01,2014-09-30 12:29:00,
2014-09-30 08:30:00,51.2,50.7,29.90,North,350,0.0,6.0,98,0.00,,,0.07,VWS V14.01,2014-09-30 12:30:00,
2014-09-30 08:31:00,51.3,50.8,29.90,SW,218,0.0,6.0,98,0.00,,,0.07,VWS V14.01,2014-09-30 12:31:00,
2014-09-30 08:32:00,51.2,50.7,29.90,SW,218,0.0,6.0,98,0.00,,,0.07,VWS V14.01,2014-09-30 12:32:00,
2014-09-30 08:33:00,51.2,50.7,29.90,SW,218,0.0,6.0,98,0.00,,,0.07,VWS V14.01,2014-09-30 12:33:00,
2014-09-30 08:34:00,51.2,50.7,29.91,SW,225,0.0,6.0,98,0.00,,,0.07,VWS V14.01,2014-09-30 12:34:00,
2014-09-30 08:35:00,51.2,50.7,29.91,SW,232,1.0,6.0,98,0.00,,,0.07,VWS V14.01,2014-09-30 12:35:00,
2014-09-30 08:36:00,51.2,50.7,29.91,SW,232,0.0,6.0,98,0.00,,,0.07,VWS V14.01,2014-09-30 12:36:00,
2014-09-30 08:37:00,51.2,50.7,29.91,SW,222,1.0,6.0,98,0.00,,,0.07,VWS V14.01,2014-09-30 12:37:00,
2014-09-30 08:38:00,51.2,50.7,29.91,SW,221,0.0,6.0,98,0.00,,,0.07,VWS V14.01,2014-09-30 12:38:00,
2014-09-30 08:39:00,51.2,50.7,29.91,SW,221,0.0,6.0,98,0.00,,,0.07,VWS V14.01,2014-09-30 12:39:00,
2014-09-30 08:40:00,51.2,50.7,29.91,SW,230,4.0,6.0,98,0.00,,,0.07,VWS V14.01,2014-09-30 12:40:00,
2014-09-30 08:41:00,51.2,50.7,29.91,NNW,336,1.0,6.0,98,0.00,,,0.07,VWS V14.01,2014-09-30 12:41:00,
2014-09-30 08:42:00,51.2,50.7,29.91,NNW,327,1.0,6.0,98,0.00,,,0.07,VWS V14.01,2014-09-30 12:42:00,
2014-09-30 08:43:00,51.2,50.4,29.91,WNW,291,0.0,6.0,97,0.00,,,0.07,VWS V14.01,2014-09-30 12:43:00,
2014-09-30 08:44:00,51.2,50.4,29.91,WNW,296,4.0,6.0,97,0.00,,,0.07,VWS V14.01,2014-09-30 12:44:00,
2014-09-30 08:45:00,51.2,50.4,29.91,WNW,296,0.0,6.0,97,0.00,,,0.07,VWS V14.01,2014-09-30 12:45:00,
2014-09-30 08:46:00,51.2,50.4,29.91,WNW,296,0.0,6.0,97,0.00,,,0.07,VWS V14.01,2014-09-30 12:46:00,
2014-09-30 08:47:00,51.2,50.4,29.91,WNW,296,0.0,6.0,97,0.00,,,0.07,VWS V14.01,2014-09-30 12:47:00,
2014-09-30 08:48:00,51.3,50.5,29.91,WNW,296,0.0,6.0,97,0.00,,,0.07,VWS V14.01,2014-09-30 12:48:00,
2014-09-30 08:49:00,51.3,50.5,29.91,WNW,295,0.0,6.0,97,0.00,,,0.07,VWS V14.01,2014-09-30 12:49:00,
2014-09-30 08:50:00,51.3,50.5,29.91,WNW,295,0.0,6.0,97,0.00,,,0.07,VWS V14.01,2014-09-30 12:50:00,
2014-09-30 08:51:00,51.3,50.5,29.91,WNW,297,0.0,6.0,97,0.00,,,0.07,VWS V14.01,2014-09-30 12:51:00,
2014-09-30 08:52:00,51.4,50.6,29.91,WNW,297,0.0,6.0,97,0.00,,,0.07,VWS V14.01,2014-09-30 12:52:00,
2014-09-30 08:53:00,51.4,50.6,29.91,WNW,297,0.0,6.0,97,0.00,,,0.07,VWS V14.01,2014-09-30 12:53:00,
2014-09-30 08:54:00,51.4,50.6,29.91,WNW,297,0.0,6.0,97,0.00,,,0.07,VWS V14.01,2014-09-30 12:54:00,
2014-09-30 08:55:00,51.4,50.6,29.91,WNW,297,2.0,6.0,97,0.00,,,0.07,VWS V14.01,2014-09-30 12:55:00,
2014-09-30 08:56:00,51.4,50.6,29.91,WNW,296,0.0,6.0,97,0.00,,,0.07,VWS V14.01,2014-09-30 12:56:00,
2014-09-30 08:57:00,51.4,50.6,29.91,WNW,295,0.0,6.0,97,0.00,,,0.07,VWS V14.01,2014-09-30 12:57:00,
2014-09-30 08:58:00,51.4,50.6,29.91,WNW,295,0.0,6.0,97,0.00,,,0.07,VWS V14.01,2014-09-30 12:58:00,
2014-09-30 08:59:00,51.5,50.7,29.91,WNW,295,0.0,6.0,97,0.00,,,0.07,VWS V14.01,2014-09-30 12:59:00,
2014-09-30 09:00:00,51.5,50.7,29.91,WNW,295,0.0,6.0,97,0.00,,,0.07,VWS V14.01,2014-09-30 13:00:00,
2014-09-30 09:01:00,51.5,50.7,29.91,WNW,295,0.0,0.0,97,0.00,,,0.07,VWS V14.01,2014-09-30 13:01:00,
2014-09-30 09:02:00,51.5,50.7,29.91,WNW,296,0.0,2.0,97,0.00,,,0.07,VWS V14.01,2014-09-30 13:02:00,
2014-09-30 09:03:00,51.5,50.7,29.91,WNW,295,0.0,2.0,97,0.00,,,0.07,VWS V14.01,2014-09-30 13:03:00,
2014-09-30 09:04:00,51.5,50.7,29.91,WNW,295,0.0,2.0,97,0.00,,,0.07,VWS V14.01,2014-09-30 13:04:00,
2014-09-30 09:05:00,51.6,50.8,29.92,WNW,295,0.0,2.0,97,0.00,,,0.07,VWS V14.01,2014-09-30 13:05:00,
2014-09-30 09:06:00,51.6,50.8,29.92,WNW,296,0.0,2.0,97,0.00,,,0.07,VWS V14.01,2014-09-30 13:06:00,
2014-09-30 09:07:00,51.6,50.8,29.91,WNW,296,0.0,2.0,97,0.00,,,0.07,VWS V14.01,2014-09-30 13:07:00,
2014-09-30 09:08:00,51.6,50.8,29.92,WNW,298,0.0,6.0,97,0.00,,,0.07,VWS V14.01,2014-09-30 13:08:00,
2014-09-30 09:09:00,51.6,50.8,29.92,WNW,298,0.0,6.0,97,0.00,,,0.07,VWS V14.01,2014-09-30 13:09:00,
2014-09-30 09:10:00,51.6,50.8,29.92,WNW,298,0.0,6.0,97,0.00,,,0.07,VWS V14.01,2014-09-30 13:10:00,
2014-09-30 09:11:00,51.6,50.8,29.92,WNW,298,5.0,6.0,97,0.00,,,0.07,VWS V14.01,2014-09-30 13:11:00,
2014-09-30 09:12:00,51.6,50.8,29.92,NW,321,0.0,8.0,97,0.00,,,0.07,VWS V14.01,2014-09-30 13:12:00,
2014-09-30 09:13:00,51.6,50.8,29.92,NW,321,0.0,8.0,97,0.00,,,0.07,VWS V14.01,2014-09-30 13:13:00,
2014-09-30 09:14:00,51.7,50.9,29.92,NW,321,0.0,8.0,97,0.00,,,0.07,VWS V14.01,2014-09-30 13:14:00,
2014-09-30 09:15:00,51.7,50.9,29.92,NW,321,0.0,8.0,97,0.00,,,0.07,VWS V14.01,2014-09-30 13:15:00,
2014-09-30 09:16:00,51.8,51.3,29.92,NW,321,1.0,8.0,98,0.00,,,0.07,VWS V14.01,2014-09-30 13:16:00,
2014-09-30 09:17:00,51.8,51.3,29.92,NW,321,0.0,8.0,98,0.00,,,0.07,VWS V14.01,2014-09-30 13:17:00,
2014-09-30 09:18:00,51.9,51.1,29.92,NW,318,5.0,8.0,97,0.00,,,0.07,VWS V14.01,2014-09-30 13:18:00,
2014-09-30 09:19:00,51.9,51.1,29.92,NW,326,0.0,8.0,97,0.00,,,0.07,VWS V14.01,2014-09-30 13:19:00,
2014-09-30 09:20:00,51.9,51.1,29.92,NW,317,5.0,8.0,97,0.00,,,0.07,VWS V14.01,2014-09-30 13:20:00,
2014-09-30 09:21:00,51.9,51.1,29.92,NW,317,0.0,8.0,97,0.00,,,0.07,VWS V14.01,2014-09-30 13:21:00,
2014-09-30 09:22:00,51.9,51.1,29.92,NW,317,0.0,8.0,97,0.00,,,0.07,VWS V14.01,2014-09-30 13:22:00,
2014-09-30 09:23:00,51.9,51.1,29.92,NW,317,0.0,8.0,97,0.00,,,0.07,VWS V14.01,2014-09-30 13:23:00,
2014-09-30 09:24:00,51.9,51.1,29.92,NW,317,0.0,8.0,97,0.00,,,0.07,VWS V14.01,2014-09-30 13:24:00,
2014-09-30 09:25:00,51.9,51.1,29.92,NW,317,0.0,8.0,97,0.00,,,0.07,VWS V14.01,2014-09-30 13:25:00,
2014-09-30 09:26:00,51.9,51.1,29.92,NW,317,0.0,8.0,97,0.00,,,0.07,VWS V14.01,2014-09-30 13:26:00,
2014-09-30 09:27:00,52.0,51.2,29.92,NW,317,0.0,8.0,97,0.00,,,0.07,VWS V14.01,2014-09-30 13:27:00,
2014-09-30 09:28:00,52.1,51.3,29.92,NW,317,0.0,8.0,97,0.00,,,0.07,VWS V14.01,2014-09-30 13:28:00,
2014-09-30 09:29:00,52.1,51.5,29.92,NW,317,0.0,8.0,98,0.00,,,0.07,VWS V14.01,2014-09-30 13:29:00,
2014-09-30 09:30:00,52.2,51.7,29.92,NW,317,0.0,8.0,98,0.00,,,0.07,VWS V14.01,2014-09-30 13:30:00,
2014-09-30 09:31:00,52.2,51.4,29.92,NE,44,0.0,8.0,97,0.00,,,0.07,VWS V14.01,2014-09-30 13:31:00,
2014-09-30 09:32:00,52.2,51.4,29.92,NE,44,0.0,8.0,97,0.00,,,0.07,VWS V14.01,2014-09-30 13:32:00,
2014-09-30 09:33:00,52.3,51.5,29.92,NE,44,0.0,8.0,97,0.00,,,0.07,VWS V14.01,2014-09-30 13:33:00,
2014-09-30 09:34:00,52.4,51.6,29.92,NE,44,0.0,8.0,97,0.00,,,0.07,VWS V14.01,2014-09-30 13:34:00,
2014-09-30 09:35:00,52.4,51.6,29.92,NE,44,0.0,8.0,97,0.00,,,0.07,VWS V14.01,2014-09-30 13:35:00,
2014-09-30 09:36:00,52.5,51.7,29.92,NE,40,0.0,8.0,97,0.00,,,0.07,VWS V14.01,2014-09-30 13:36:00,
2014-09-30 09:37:00,52.6,51.8,29.92,NE,40,0.0,8.0,97,0.00,,,0.07,VWS V14.01,2014-09-30 13:37:00,
2014-09-30 09:38:00,52.6,51.8,29.91,NE,40,0.0,8.0,97,0.00,,,0.07,VWS V14.01,2014-09-30 13:38:00,
2014-09-30 09:39:00,52.7,51.9,29.91,NE,39,1.0,8.0,97,0.00,,,0.07,VWS V14.01,2014-09-30 13:39:00,
2014-09-30 09:40:00,52.8,52.0,29.91,NE,38,0.0,8.0,97,0.00,,,0.07,VWS V14.01,2014-09-30 13:40:00,
2014-09-30 09:41:00,52.9,52.1,29.92,NE,38,0.0,8.0,97,0.00,,,0.07,VWS V14.01,2014-09-30 13:41:00,
2014-09-30 09:42:00,52.9,52.1,29.92,North,5,0.0,8.0,97,0.00,,,0.07,VWS V14.01,2014-09-30 13:42:00,
2014-09-30 09:43:00,53.0,52.2,29.92,North,5,0.0,8.0,97,0.00,,,0.07,VWS V14.01,2014-09-30 13:43:00,
2014-09-30 09:44:00,53.0,52.2,29.92,North,5,0.0,8.0,97,0.00,,,0.07,VWS V14.01,2014-09-30 13:44:00,
2014-09-30 09:45:00,53.1,52.3,29.92,North,5,0.0,8.0,97,0.00,,,0.07,VWS V14.01,2014-09-30 13:45:00,
2014-09-30 09:46:00,53.1,52.3,29.92,North,9,2.0,8.0,97,0.00,,,0.07,VWS V14.01,2014-09-30 13:46:00,
2014-09-30 09:47:00,53.1,52.3,29.92,North,9,0.0,8.0,97,0.00,,,0.07,VWS V14.01,2014-09-30 13:47:00,
2014-09-30 09:48:00,53.1,52.3,29.92,North,9,0.0,8.0,97,0.00,,,0.07,VWS V14.01,2014-09-30 13:48:00,
2014-09-30 09:49:00,53.1,52.3,29.92,North,9,0.0,8.0,97,0.00,,,0.07,VWS V14.01,2014-09-30 13:49:00,
2014-09-30 09:50:00,53.1,52.0,29.92,North,9,0.0,8.0,96,0.00,,,0.07,VWS V14.01,2014-09-30 13:50:00,
2014-09-30 09:51:00,53.2,52.4,29.92,North,9,0.0,8.0,97,0.00,,,0.07,VWS V14.01,2014-09-30 13:51:00,
2014-09-30 09:52:00,53.2,52.1,29.92,North,9,0.0,8.0,96,0.00,,,0.07,VWS V14.01,2014-09-30 13:52:00,
2014-09-30 09:53:00,53.2,52.1,29.92,North,9,0.0,8.0,96,0.00,,,0.07,VWS V14.01,2014-09-30 13:53:00,
2014-09-30 09:54:00,53.2,52.1,29.92,North,9,0.0,8.0,96,0.00,,,0.07,VWS V14.01,2014-09-30 13:54:00,
2014-09-30 09:55:00,53.2,52.1,29.92,North,9,0.0,8.0,96,0.00,,,0.07,VWS V14.01,2014-09-30 13:55:00,
2014-09-30 09:56:00,53.2,52.1,29.92,North,10,0.0,8.0,96,0.00,,,0.07,VWS V14.01,2014-09-30 13:56:00,
2014-09-30 09:57:00,53.2,52.1,29.92,North,10,0.0,8.0,96,0.00,,,0.07,VWS V14.01,2014-09-30 13:57:00,
2014-09-30 09:58:00,53.2,51.8,29.92,North,10,0.0,8.0,95,0.00,,,0.07,VWS V14.01,2014-09-30 13:58:00,
2014-09-30 09:59:00,53.1,51.7,29.92,North,10,0.0,8.0,95,0.00,,,0.07,VWS V14.01,2014-09-30 13:59:00,
2014-09-30 10:00:00,53.2,52.1,29.92,North,10,0.0,8.0,96,0.00,,,0.07,VWS V14.01,2014-09-30 14:00:00,
2014-09-30 10:01:00,53.2,52.1,29.92,North,10,0.0,1.0,96,0.00,,,0.07,VWS V14.01,2014-09-30 14:01:00,
2014-09-30 10:02:00,53.2,51.8,29.92,North,360,1.0,1.0,95,0.00,,,0.07,VWS V14.01,2014-09-30 14:02:00,
2014-09-30 10:03:00,53.1,51.7,29.92,SW,236,0.0,5.0,95,0.00,,,0.07,VWS V14.01,2014-09-30 14:03:00,
2014-09-30 10:04:00,53.1,51.7,29.92,SW,234,0.0,5.0,95,0.00,,,0.07,VWS V14.01,2014-09-30 14:04:00,
2014-09-30 10:05:00,53.1,51.7,29.92,SW,234,0.0,5.0,95,0.00,,,0.07,VWS V14.01,2014-09-30 14:05:00,
2014-09-30 10:06:00,53.1,51.7,29.92,NW,308,0.0,5.0,95,0.00,,,0.07,VWS V14.01,2014-09-30 14:06:00,
2014-09-30 10:07:00,53.1,51.7,29.92,NW,308,0.0,5.0,95,0.00,,,0.07,VWS V14.01,2014-09-30 14:07:00,
2014-09-30 10:08:00,53.2,51.8,29.92,NW,308,0.0,5.0,95,0.00,,,0.07,VWS V14.01,2014-09-30 14:08:00,
2014-09-30 10:09:00,53.2,51.8,29.92,NW,308,0.0,5.0,95,0.00,,,0.07,VWS V14.01,2014-09-30 14:09:00,
2014-09-30 10:10:00,53.3,51.9,29.92,NW,308,0.0,5.0,95,0.00,,,0.07,VWS V14.01,2014-09-30 14:10:00,
2014-09-30 10:11:00,53.3,51.9,29.92,NW,310,2.0,5.0,95,0.00,,,0.07,VWS V14.01,2014-09-30 14:11:00,
2014-09-30 10:12:00,53.3,51.9,29.92,NW,313,0.0,5.0,95,0.00,,,0.07,VWS V14.01,2014-09-30 14:12:00,
2014-09-30 10:13:00,53.3,51.9,29.92,NW,313,0.0,5.0,95,0.00,,,0.07,VWS V14.01,2014-09-30 14:13:00,
2014-09-30 10:14:00,53.3,51.9,29.92,NW,313,0.0,5.0,95,0.00,,,0.07,VWS V14.01,2014-09-30 14:14:00,
2014-09-30 10:15:00,53.3,51.9,29.92,NW,313,0.0,5.0,95,0.00,,,0.07,VWS V14.01,2014-09-30 14:15:00,
2014-09-30 10:16:00,53.3,51.9,29.92,NW,313,0.0,5.0,95,0.00,,,0.07,VWS V14.01,2014-09-30 14:16:00,
2014-09-30 10:17:00,53.4,52.0,29.92,NW,313,1.0,5.0,95,0.00,,,0.07,VWS V14.01,2014-09-30 14:17:00,
2014-09-30 10:18:00,53.4,52.3,29.92,WNW,303,0.0,5.0,96,0.00,,,0.07,VWS V14.01,2014-09-30 14:18:00,
2014-09-30 10:19:00,53.3,51.9,29.92,NW,309,1.0,6.0,95,0.00,,,0.07,VWS V14.01,2014-09-30 14:19:00,
2014-09-30 10:20:00,53.3,51.9,29.92,NW,309,0.0,6.0,95,0.00,,,0.07,VWS V14.01,2014-09-30 14:20:00,
2014-09-30 10:21:00,53.3,51.9,29.92,NW,309,3.0,6.0,95,0.00,,,0.07,VWS V14.01,2014-09-30 14:21:00,
2014-09-30 10:22:00,53.3,51.9,29.92,NW,309,0.0,6.0,95,0.00,,,0.07,VWS V14.01,2014-09-30 14:22:00,
2014-09-30 10:23:00,53.3,51.9,29.92,NW,309,0.0,6.0,95,0.00,,,0.07,VWS V14.01,2014-09-30 14:23:00,
2014-09-30 10:24:00,53.4,52.0,29.92,NW,309,0.0,6.0,95,0.00,,,0.07,VWS V14.01,2014-09-30 14:24:00,
2014-09-30 10:25:00,53.4,52.0,29.92,NW,309,0.0,6.0,95,0.00,,,0.07,VWS V14.01,2014-09-30 14:25:00,
2014-09-30 10:26:00,53.5,52.4,29.92,NW,309,0.0,6.0,96,0.00,,,0.07,VWS V14.01,2014-09-30 14:26:00,
2014-09-30 10:27:00,53.5,52.4,29.92,NW,309,4.0,6.0,96,0.00,,,0.07,VWS V14.01,2014-09-30 14:27:00,
2014-09-30 10:28:00,53.5,52.1,29.92,NW,309,0.0,6.0,95,0.00,,,0.07,VWS V14.01,2014-09-30 14:28:00,
2014-09-30 10:29:00,53.5,52.1,29.92,NW,309,0.0,6.0,95,0.00,,,0.07,VWS V14.01,2014-09-30 14:29:00,
2014-09-30 10:30:00,53.5,52.1,29.92,NW,309,0.0,6.0,95,0.00,,,0.07,VWS V14.01,2014-09-30 14:30:00,
2014-09-30 10:31:00,53.6,52.2,29.92,NW,309,0.0,6.0,95,0.00,,,0.07,VWS V14.01,2014-09-30 14:31:00,
2014-09-30 10:32:00,53.2,52.1,29.92,North,9,0.0,8.0,96,0.00,,,0.07,VWS V14.01,2014-09-30 14:32:00,
2014-09-30 10:33:00,53.7,52.6,29.92,NW,309,0.0,6.0,96,0.00,,,0.07,VWS V14.01,2014-09-30 14:33:00,
2014-09-30 10:34:00,53.8,52.4,29.92,NW,307,0.0,6.0,95,0.00,,,0.07,VWS V14.01,2014-09-30 14:34:00,
2014-09-30 10:35:00,53.8,52.4,29.92,NW,308,0.0,6.0,95,0.00,,,0.07,VWS V14.01,2014-09-30 14:35:00,
2014-09-30 10:36:00,53.8,52.4,29.92,NW,308,0.0,6.0,95,0.00,,,0.07,VWS V14.01,2014-09-30 14:36:00,
2014-09-30 10:37:00,53.9,52.5,29.92,NW,310,0.0,6.0,95,0.00,,,0.07,VWS V14.01,2014-09-30 14:37:00,
2014-09-30 10:38:00,53.9,52.5,29.92,NW,310,0.0,6.0,95,0.00,,,0.07,VWS V14.01,2014-09-30 14:38:00,
2014-09-30 10:39:00,53.9,52.5,29.92,NW,310,0.0,6.0,95,0.00,,,0.07,VWS V14.01,2014-09-30 14:39:00,
2014-09-30 10:40:00,54.0,52.6,29.92,NW,310,6.0,6.0,95,0.00,,,0.07,VWS V14.01,2014-09-30 14:40:00,
2014-09-30 10:41:00,54.0,52.6,29.92,NW,318,2.0,6.0,95,0.00,,,0.07,VWS V14.01,2014-09-30 14:41:00,
2014-09-30 10:42:00,54.0,52.3,29.92,NW,318,0.0,6.0,94,0.00,,,0.07,VWS V14.01,2014-09-30 14:42:00,
2014-09-30 10:43:00,54.1,52.4,29.92,NW,318,0.0,6.0,94,0.00,,,0.07,VWS V14.01,2014-09-30 14:43:00,
2014-09-30 10:44:00,54.1,52.4,29.92,NW,318,0.0,6.0,94,0.00,,,0.07,VWS V14.01,2014-09-30 14:44:00,
2014-09-30 10:45:00,54.1,52.4,29.92,NW,319,0.0,6.0,94,0.00,,,0.07,VWS V14.01,2014-09-30 14:45:00,
2014-09-30 10:46:00,54.2,52.5,29.92,NW,319,0.0,6.0,94,0.00,,,0.07,VWS V14.01,2014-09-30 14:46:00,
2014-09-30 10:47:00,54.3,52.6,29.92,NW,319,0.0,6.0,94,0.00,,,0.07,VWS V14.01,2014-09-30 14:47:00,
2014-09-30 10:48:00,54.3,52.6,29.92,NW,319,0.0,6.0,94,0.00,,,0.07,VWS V14.01,2014-09-30 14:48:00,
2014-09-30 10:49:00,54.4,52.7,29.92,NW,319,0.0,6.0,94,0.00,,,0.07,VWS V14.01,2014-09-30 14:49:00,
2014-09-30 10:50:00,54.5,52.8,29.92,NW,319,0.0,6.0,94,0.00,,,0.07,VWS V14.01,2014-09-30 14:50:00,
2014-09-30 10:51:00,54.5,52.8,29.92,NW,319,0.0,6.0,94,0.00,,,0.07,VWS V14.01,2014-09-30 14:51:00,
2014-09-30 10:52:00,54.5,52.8,29.92,NW,319,0.0,6.0,94,0.00,,,0.07,VWS V14.01,2014-09-30 14:52:00,
2014-09-30 10:53:00,54.6,52.9,29.92,NW,319,0.0,6.0,94,0.00,,,0.07,VWS V14.01,2014-09-30 14:53:00,
2014-09-30 10:54:00,54.6,52.9,29.92,NW,319,0.0,6.0,94,0.00,,,0.07,VWS V14.01,2014-09-30 14:54:00,
2014-09-30 10:55:00,54.6,52.6,29.92,NW,319,0.0,6.0,93,0.00,,,0.07,VWS V14.01,2014-09-30 14:55:00,
2014-09-30 10:56:00,53.3,51.9,29.92,NW,313,0.0,5.0,95,0.00,,,0.07,VWS V14.01,2014-09-30 14:56:00,
2014-09-30 10:57:00,54.7,52.7,29.92,WNW,291,0.0,6.0,93,0.00,,,0.07,VWS V14.01,2014-09-30 14:57:00,
2014-09-30 10:58:00,54.7,52.7,29.92,WNW,292,0.0,6.0,93,0.00,,,0.07,VWS V14.01,2014-09-30 14:58:00,
2014-09-30 10:59:00,54.7,52.7,29.92,WNW,292,0.0,6.0,93,0.00,,,0.07,VWS V14.01,2014-09-30 14:59:00,
2014-09-30 11:00:00,54.8,52.8,29.92,WNW,292,0.0,6.0,93,0.00,,,0.07,VWS V14.01,2014-09-30 15:00:00,
2014-09-30 11:01:00,54.8,52.5,29.92,WNW,292,0.0,1.0,92,0.00,,,0.07,VWS V14.01,2014-09-30 15:01:00,
2014-09-30 11:02:00,54.9,52.9,29.92,NW,324,0.0,3.0,93,0.00,,,0.07,VWS V14.01,2014-09-30 15:02:00,
2014-09-30 11:03:00,55.0,52.7,29.92,NW,311,4.0,4.0,92,0.00,,,0.07,VWS V14.01,2014-09-30 15:03:00,
2014-09-30 11:04:00,55.1,52.8,29.92,NW,320,5.0,7.0,92,0.00,,,0.07,VWS V14.01,2014-09-30 15:04:00,
2014-09-30 11:05:00,55.2,52.9,29.92,NW,318,0.0,7.0,92,0.00,,,0.07,VWS V14.01,2014-09-30 15:05:00,
2014-09-30 11:06:00,55.3,53.0,29.92,NW,314,0.0,7.0,92,0.00,,,0.07,VWS V14.01,2014-09-30 15:06:00,
2014-09-30 11:07:00,55.3,53.0,29.92,NW,315,5.0,7.0,92,0.00,,,0.07,VWS V14.01,2014-09-30 15:07:00,
2014-09-30 11:08:00,55.3,53.0,29.92,NW,310,0.0,7.0,92,0.00,,,0.07,VWS V14.01,2014-09-30 15:08:00,
2014-09-30 11:09:00,55.4,52.8,29.92,NW,310,0.0,7.0,91,0.00,,,0.07,VWS V14.01,2014-09-30 15:09:00,
2014-09-30 11:10:00,55.4,52.8,29.92,NW,310,0.0,7.0,91,0.00,,,0.07,VWS V14.01,2014-09-30 15:10:00,
2014-09-30 11:11:00,55.4,52.8,29.92,NE,38,0.0,7.0,91,0.00,,,0.07,VWS V14.01,2014-09-30 15:11:00,
2014-09-30 11:12:00,55.4,52.5,29.91,NE,38,0.0,7.0,90,0.00,,,0.07,VWS V14.01,2014-09-30 15:12:00,
2014-09-30 11:13:00,55.4,52.5,29.92,NE,37,1.0,7.0,90,0.00,,,0.07,VWS V14.01,2014-09-30 15:13:00,
2014-09-30 11:14:00,55.4,52.5,29.92,NE,38,0.0,7.0,90,0.00,,,0.07,VWS V14.01,2014-09-30 15:14:00,
2014-09-30 11:15:00,55.5,52.6,29.92,NE,38,0.0,7.0,90,0.00,,,0.07,VWS V14.01,2014-09-30 15:15:00,
2014-09-30 11:16:00,55.5,52.6,29.91,NNE,27,2.0,7.0,90,0.00,,,0.07,VWS V14.01,2014-09-30 15:16:00,
2014-09-30 11:17:00,55.6,52.7,29.91,NNE,27,0.0,7.0,90,0.00,,,0.07,VWS V14.01,2014-09-30 15:17:00,
2014-09-30 11:18:00,55.7,52.8,29.91,NNE,27,0.0,7.0,90,0.00,,,0.07,VWS V14.01,2014-09-30 15:18:00,
2014-09-30 11:19:00,55.7,52.8,29.91,NW,304,0.0,7.0,90,0.00,,,0.07,VWS V14.01,2014-09-30 15:19:00,
2014-09-30 11:20:00,55.8,52.9,29.91,NW,304,0.0,7.0,90,0.00,,,0.07,VWS V14.01,2014-09-30 15:20:00,
2014-09-30 11:21:00,55.9,53.3,29.92,ENE,59,2.0,7.0,91,0.00,,,0.07,VWS V14.01,2014-09-30 15:21:00,
2014-09-30 11:22:00,55.9,53.0,29.92,ENE,58,0.0,7.0,90,0.00,,,0.07,VWS V14.01,2014-09-30 15:22:00,
2014-09-30 11:23:00,55.9,53.0,29.92,ENE,58,0.0,7.0,90,0.00,,,0.07,VWS V14.01,2014-09-30 15:23:00,
2014-09-30 11:24:00,54.1,52.4,29.92,NW,318,0.0,6.0,94,0.00,,,0.07,VWS V14.01,2014-09-30 15:24:00,
2014-09-30 11:25:00,56.0,52.8,29.91,NW,311,0.0,7.0,89,0.00,,,0.07,VWS V14.01,2014-09-30 15:25:00,
2014-09-30 11:26:00,56.0,52.8,29.91,NW,310,0.0,7.0,89,0.00,,,0.07,VWS V14.01,2014-09-30 15:26:00,
2014-09-30 11:27:00,56.0,52.8,29.91,NW,310,0.0,7.0,89,0.00,,,0.07,VWS V14.01,2014-09-30 15:27:00,
2014-09-30 11:28:00,56.1,52.9,29.91,NW,310,0.0,7.0,89,0.00,,,0.07,VWS V14.01,2014-09-30 15:28:00,
2014-09-30 11:29:00,56.1,52.9,29.91,West,267,0.0,7.0,89,0.00,,,0.07,VWS V14.01,2014-09-30 15:29:00,
2014-09-30 11:30:00,56.2,53.0,29.91,West,271,0.0,7.0,89,0.00,,,0.07,VWS V14.01,2014-09-30 15:30:00,
2014-09-30 11:31:00,56.2,52.7,29.91,West,271,0.0,7.0,88,0.00,,,0.07,VWS V14.01,2014-09-30 15:31:00,
2014-09-30 11:32:00,56.3,52.8,29.91,West,273,0.0,7.0,88,0.00,,,0.07,VWS V14.01,2014-09-30 15:32:00,
2014-09-30 11:33:00,56.3,52.5,29.91,ENE,60,1.0,7.0,87,0.00,,,0.07,VWS V14.01,2014-09-30 15:33:00,
2014-09-30 11:34:00,56.3,52.8,29.91,WNW,303,0.0,7.0,88,0.00,,,0.07,VWS V14.01,2014-09-30 15:34:00,
2014-09-30 11:35:00,56.3,52.5,29.91,WNW,303,0.0,7.0,87,0.00,,,0.07,VWS V14.01,2014-09-30 15:35:00,
2014-09-30 11:36:00,56.4,52.9,29.91,WNW,303,0.0,7.0,88,0.00,,,0.07,VWS V14.01,2014-09-30 15:36:00,
2014-09-30 11:37:00,56.4,52.9,29.91,WNW,303,0.0,7.0,88,0.00,,,0.07,VWS V14.01,2014-09-30 15:37:00,
2014-09-30 11:38:00,56.5,53.0,29.91,WNW,303,0.0,7.0,88,0.00,,,0.07,VWS V14.01,2014-09-30 15:38:00,
2014-09-30 11:39:00,56.6,53.4,29.91,WNW,294,1.0,7.0,89,0.00,,,0.07,VWS V14.01,2014-09-30 15:39:00,
2014-09-30 11:40:00,56.6,53.4,29.91,NE,42,5.0,10.0,89,0.00,,,0.07,VWS V14.01,2014-09-30 15:40:00,
2014-09-30 11:41:00,56.6,53.1,29.91,NW,310,0.0,10.0,88,0.00,,,0.07,VWS V14.01,2014-09-30 15:41:00,
2014-09-30 11:42:00,56.6,53.1,29.91,NW,306,0.0,10.0,88,0.00,,,0.07,VWS V14.01,2014-09-30 15:42:00,
2014-09-30 11:43:00,56.6,53.1,29.92,NW,304,0.0,10.0,88,0.00,,,0.07,VWS V14.01,2014-09-30 15:43:00,
2014-09-30 11:44:00,56.5,53.0,29.92,WNW,302,4.0,10.0,88,0.00,,,0.07,VWS V14.01,2014-09-30 15:44:00,
2014-09-30 11:45:00,55.2,52.9,29.92,NW,318,0.0,7.0,92,0.00,,,0.07,VWS V14.01,2014-09-30 15:45:00,
2014-09-30 11:46:00,56.4,52.9,29.92,WNW,302,0.0,10.0,88,0.00,,,0.07,VWS V14.01,2014-09-30 15:46:00,
2014-09-30 11:47:00,56.3,52.8,29.92,WNW,302,0.0,10.0,88,0.00,,,0.07,VWS V14.01,2014-09-30 15:47:00,
2014-09-30 11:48:00,56.3,52.8,29.92,WNW,302,0.0,10.0,88,0.00,,,0.07,VWS V14.01,2014-09-30 15:48:00,
2014-09-30 11:49:00,56.2,52.7,29.92,WNW,302,0.0,10.0,88,0.00,,,0.07,VWS V14.01,2014-09-30 15:49:00,
2014-09-30 11:50:00,56.2,52.7,29.92,WNW,302,0.0,10.0,88,0.00,,,0.07,VWS V14.01,2014-09-30 15:50:00,
2014-09-30 11:51:00,56.1,52.6,29.92,WNW,302,0.0,10.0,88,0.00,,,0.07,VWS V14.01,2014-09-30 15:51:00,
2014-09-30 11:52:00,56.1,52.6,29.92,WNW,302,0.0,10.0,88,0.00,,,0.07,VWS V14.01,2014-09-30 15:52:00,
2014-09-30 11:53:00,56.1,52.6,29.92,WNW,302,0.0,10.0,88,0.00,,,0.07,VWS V14.01,2014-09-30 15:53:00,
2014-09-30 11:54:00,56.0,52.5,29.92,WNW,302,1.0,10.0,88,0.00,,,0.07,VWS V14.01,2014-09-30 15:54:00,
2014-09-30 11:55:00,56.0,52.5,29.92,WNW,302,0.0,10.0,88,0.00,,,0.07,VWS V14.01,2014-09-30 15:55:00,
2014-09-30 11:56:00,56.0,52.5,29.92,WNW,302,0.0,10.0,88,0.00,,,0.07,VWS V14.01,2014-09-30 15:56:00,
2014-09-30 11:57:00,56.1,52.9,29.92,NW,306,4.0,10.0,89,0.00,,,0.07,VWS V14.01,2014-09-30 15:57:00,
2014-09-30 11:58:00,56.1,52.6,29.92,NW,307,0.0,10.0,88,0.00,,,0.07,VWS V14.01,2014-09-30 15:58:00,
2014-09-30 11:59:00,56.1,52.6,29.92,NW,307,0.0,10.0,88,0.00,,,0.07,VWS V14.01,2014-09-30 15:59:00,
2014-09-30 12:00:00,56.2,52.7,29.92,NW,307,1.0,10.0,88,0.00,,,0.07,VWS V14.01,2014-09-30 16:00:00,
2014-09-30 12:01:00,56.2,52.7,29.92,NNE,15,1.0,4.0,88,0.00,,,0.07,VWS V14.01,2014-09-30 16:01:00,
2014-09-30 12:02:00,56.2,52.7,29.92,NE,48,2.0,4.0,88,0.00,,,0.07,VWS V14.01,2014-09-30 16:02:00,
2014-09-30 12:03:00,56.1,52.6,29.92,NE,43,0.0,4.0,88,0.00,,,0.07,VWS V14.01,2014-09-30 16:03:00,
2014-09-30 12:04:00,56.0,52.2,29.92,NNE,16,0.0,4.0,87,0.00,,,0.07,VWS V14.01,2014-09-30 16:04:00,
2014-09-30 12:05:00,55.9,52.4,29.92,NNE,16,0.0,4.0,88,0.00,,,0.07,VWS V14.01,2014-09-30 16:05:00,
2014-09-30 12:06:00,55.9,52.4,29.92,NNE,16,0.0,4.0,88,0.00,,,0.07,VWS V14.01,2014-09-30 16:06:00,
2014-09-30 12:07:00,55.9,52.4,29.92,NNE,14,0.0,4.0,88,0.00,,,0.07,VWS V14.01,2014-09-30 16:07:00,
2014-09-30 12:08:00,55.9,52.7,29.92,NNE,15,0.0,4.0,89,0.00,,,0.07,VWS V14.01,2014-09-30 16:08:00,
2014-09-30 12:09:00,56.0,52.8,29.92,North,360,2.0,4.0,89,0.00,,,0.07,VWS V14.01,2014-09-30 16:09:00,
2014-09-30 12:10:00,56.1,52.9,29.92,NW,319,0.0,5.0,89,0.00,,,0.07,VWS V14.01,2014-09-30 16:10:00,
2014-09-30 12:11:00,56.2,53.0,29.92,NW,319,0.0,5.0,89,0.00,,,0.07,VWS V14.01,2014-09-30 16:11:00,
2014-09-30 12:12:00,56.3,52.8,29.91,West,272,0.0,7.0,88,0.00,,,0.07,VWS V14.01,2014-09-30 16:12:00,
2014-09-30 12:13:00,56.4,53.2,29.92,NW,319,0.0,5.0,89,0.00,,,0.07,VWS V14.01,2014-09-30 16:13:00,
2014-09-30 12:14:00,56.5,53.3,29.92,NW,318,0.0,5.0,89,0.00,,,0.07,VWS V14.01,2014-09-30 16:14:00,
2014-09-30 12:15:00,56.6,53.4,29.91,NE,42,1.0,5.0,89,0.00,,,0.07,VWS V14.01,2014-09-30 16:15:00,
2014-09-30 12:16:00,56.8,53.6,29.92,ENE,62,0.0,5.0,89,0.00,,,0.07,VWS V14.01,2014-09-30 16:16:00,
2014-09-30 12:17:00,56.9,53.7,29.92,West,276,0.0,5.0,89,0.00,,,0.07,VWS V14.01,2014-09-30 16:17:00,
2014-09-30 12:18:00,57.0,53.5,29.92,West,277,0.0,5.0,88,0.00,,,0.07,VWS V14.01,2014-09-30 16:18:00,
2014-09-30 12:19:00,57.1,53.6,29.92,West,275,0.0,5.0,88,0.00,,,0.07,VWS V14.01,2014-09-30 16:19:00,
2014-09-30 12:20:00,57.3,53.5,29.92,West,275,0.0,5.0,87,0.00,,,0.07,VWS V14.01,2014-09-30 16:20:00,
2014-09-30 12:21:00,57.4,53.9,29.92,West,275,0.0,5.0,88,0.00,,,0.07,VWS V14.01,2014-09-30 16:21:00,
2014-09-30 12:22:00,57.5,53.7,29.92,West,275,0.0,5.0,87,0.00,,,0.07,VWS V14.01,2014-09-30 16:22:00,
2014-09-30 12:23:00,57.6,53.8,29.91,West,275,0.0,5.0,87,0.00,,,0.07,VWS V14.01,2014-09-30 16:23:00,
2014-09-30 12:24:00,57.7,53.9,29.92,West,276,0.0,5.0,87,0.00,,,0.07,VWS V14.01,2014-09-30 16:24:00,
2014-09-30 12:25:00,57.8,54.0,29.92,West,275,0.0,5.0,87,0.00,,,0.07,VWS V14.01,2014-09-30 16:25:00,
2014-09-30 12:26:00,57.9,53.7,29.92,WNW,282,3.0,5.0,86,0.00,,,0.07,VWS V14.01,2014-09-30 16:26:00,
2014-09-30 12:27:00,58.0,53.8,29.92,WNW,282,0.0,5.0,86,0.00,,,0.07,VWS V14.01,2014-09-30 16:27:00,
2014-09-30 12:28:00,58.1,53.6,29.92,West,281,0.0,5.0,85,0.00,,,0.07,VWS V14.01,2014-09-30 16:28:00,
2014-09-30 12:29:00,58.1,53.6,29.92,West,281,0.0,5.0,85,0.00,,,0.07,VWS V14.01,2014-09-30 16:29:00,
2014-09-30 12:30:00,58.1,53.3,29.92,West,281,0.0,5.0,84,0.00,,,0.07,VWS V14.01,2014-09-30 16:30:00,
2014-09-30 12:31:00,58.1,53.3,29.92,NE,39,0.0,5.0,84,0.00,,,0.07,VWS V14.01,2014-09-30 16:31:00,
2014-09-30 12:32:00,58.0,53.2,29.92,WNW,302,0.0,5.0,84,0.00,,,0.07,VWS V14.01,2014-09-30 16:32:00,
2014-09-30 12:33:00,58.0,52.9,29.92,WNW,303,0.0,5.0,83,0.00,,,0.07,VWS V14.01,2014-09-30 16:33:00,
2014-09-30 12:34:00,58.0,53.2,29.92,North,9,3.0,5.0,84,0.00,,,0.07,VWS V14.01,2014-09-30 16:34:00,
2014-09-30 12:35:00,57.9,53.1,29.92,North,9,0.0,5.0,84,0.00,,,0.07,VWS V14.01,2014-09-30 16:35:00,
2014-09-30 12:36:00,57.9,53.1,29.92,North,360,1.0,5.0,84,0.00,,,0.07,VWS V14.01,2014-09-30 16:36:00,
2014-09-30 12:37:00,57.8,53.0,29.92,North,360,0.0,5.0,84,0.00,,,0.07,VWS V14.01,2014-09-30 16:37:00,
2014-09-30 12:38:00,57.8,53.0,29.92,North,360,1.0,5.0,84,0.00,,,0.07,VWS V14.01,2014-09-30 16:38:00,
2014-09-30 12:39:00,57.7,52.9,29.92,NE,35,7.0,7.0,84,0.00,,,0.07,VWS V14.01,2014-09-30 16:39:00,
2014-09-30 12:40:00,57.6,52.8,29.92,NNE,21,0.0,8.0,84,0.00,,,0.07,VWS V14.01,2014-09-30 16:40:00,
2014-09-30 12:41:00,57.6,52.8,29.92,NNE,21,0.0,8.0,84,0.00,,,0.07,VWS V14.01,2014-09-30 16:41:00,
2014-09-30 12:42:00,56.2,52.7,29.92,NE,48,0.0,4.0,88,0.00,,,0.07,VWS V14.01,2014-09-30 16:42:00,
2014-09-30 12:43:00,57.4,52.6,29.92,NW,325,4.0,8.0,84,0.00,,,0.07,VWS V14.01,2014-09-30 16:43:00,
2014-09-30 12:44:00,57.4,52.6,29.92,NW,325,0.0,8.0,84,0.00,,,0.07,VWS V14.01,2014-09-30 16:44:00,
2014-09-30 12:45:00,57.4,52.6,29.92,NW,325,0.0,8.0,84,0.00,,,0.07,VWS V14.01,2014-09-30 16:45:00,
2014-09-30 12:46:00,57.3,52.5,29.92,NW,322,0.0,8.0,84,0.00,,,0.07,VWS V14.01,2014-09-30 16:46:00,
2014-09-30 12:47:00,57.3,52.5,29.92,NW,321,0.0,8.0,84,0.00,,,0.07,VWS V14.01,2014-09-30 16:47:00,
2014-09-30 12:48:00,57.3,52.8,29.92,NW,322,0.0,8.0,85,0.00,,,0.07,VWS V14.01,2014-09-30 16:48:00,
2014-09-30 12:49:00,57.3,52.8,29.92,NW,322,0.0,8.0,85,0.00,,,0.07,VWS V14.01,2014-09-30 16:49:00,
2014-09-30 12:50:00,57.2,52.7,29.92,NW,323,0.0,8.0,85,0.00,,,0.07,VWS V14.01,2014-09-30 16:50:00,
2014-09-30 12:51:00,57.3,52.8,29.92,NW,323,0.0,8.0,85,0.00,,,0.07,VWS V14.01,2014-09-30 16:51:00,
2014-09-30 12:52:00,57.2,52.7,29.92,NW,309,1.0,8.0,85,0.00,,,0.07,VWS V14.01,2014-09-30 16:52:00,
2014-09-30 12:53:00,57.2,52.7,29.92,NW,318,1.0,8.0,85,0.00,,,0.07,VWS V14.01,2014-09-30 16:53:00,
2014-09-30 12:54:00,57.2,52.7,29.92,WNW,285,0.0,8.0,85,0.00,,,0.07,VWS V14.01,2014-09-30 16:54:00,
2014-09-30 12:55:00,57.2,52.7,29.92,NW,305,4.0,8.0,85,0.00,,,0.07,VWS V14.01,2014-09-30 16:55:00,
2014-09-30 12:56:00,57.2,52.7,29.92,WNW,290,6.0,8.0,85,0.00,,,0.07,VWS V14.01,2014-09-30 16:56:00,
2014-09-30 12:57:00,57.3,52.5,29.92,West,265,5.0,8.0,84,0.00,,,0.07,VWS V14.01,2014-09-30 16:57:00,
2014-09-30 12:58:00,57.3,52.5,29.92,West,267,0.0,8.0,84,0.00,,,0.07,VWS V14.01,2014-09-30 16:58:00,
2014-09-30 12:59:00,57.3,52.5,29.92,West,267,0.0,8.0,84,0.00,,,0.07,VWS V14.01,2014-09-30 16:59:00,
2014-09-30 13:00:00,57.3,52.5,29.92,West,267,0.0,8.0,84,0.00,,,0.07,VWS V14.01,2014-09-30 17:00:00,
2014-09-30 13:01:00,57.4,52.6,29.92,West,268,0.0,2.0,84,0.00,,,0.07,VWS V14.01,2014-09-30 17:01:00,
2014-09-30 13:02:00,57.5,52.7,29.92,West,268,0.0,2.0,84,0.00,,,0.07,VWS V14.01,2014-09-30 17:02:00,
2014-09-30 13:03:00,57.6,52.5,29.92,West,268,0.0,2.0,83,0.00,,,0.07,VWS V14.01,2014-09-30 17:03:00,
2014-09-30 13:04:00,57.7,52.9,29.92,West,269,1.0,5.0,84,0.00,,,0.07,VWS V14.01,2014-09-30 17:04:00,
2014-09-30 13:05:00,57.8,52.7,29.92,West,268,0.0,5.0,83,0.00,,,0.07,VWS V14.01,2014-09-30 17:05:00,
2014-09-30 13:06:00,58.0,52.9,29.92,West,269,1.0,5.0,83,0.00,,,0.07,VWS V14.01,2014-09-30 17:06:00,
2014-09-30 13:07:00,58.0,52.9,29.92,West,269,0.0,5.0,83,0.00,,,0.07,VWS V14.01,2014-09-30 17:07:00,
2014-09-30 13:08:00,58.1,53.0,29.92,West,269,0.0,5.0,83,0.00,,,0.07,VWS V14.01,2014-09-30 17:08:00,
2014-09-30 13:09:00,58.2,53.1,29.92,West,269,0.0,5.0,83,0.00,,,0.07,VWS V14.01,2014-09-30 17:09:00,
2014-09-30 13:10:00,58.2,52.7,29.92,West,268,0.0,5.0,82,0.00,,,0.07,VWS V14.01,2014-09-30 17:10:00,
2014-09-30 13:11:00,58.3,52.8,29.92,West,268,0.0,5.0,82,0.00,,,0.07,VWS V14.01,2014-09-30 17:11:00,
2014-09-30 13:12:00,58.4,52.9,29.92,West,269,0.0,5.0,82,0.00,,,0.07,VWS V14.01,2014-09-30 17:12:00,
2014-09-30 13:13:00,58.5,53.0,29.92,West,269,0.0,5.0,82,0.00,,,0.07,VWS V14.01,2014-09-30 17:13:00,
2014-09-30 13:14:00,58.6,53.1,29.92,NNW,346,2.0,5.0,82,0.00,,,0.07,VWS V14.01,2014-09-30 17:14:00,
2014-09-30 13:15:00,58.6,53.1,29.92,NW,313,1.0,7.0,82,0.00,,,0.07,VWS V14.01,2014-09-30 17:15:00,
2014-09-30 13:16:00,58.6,52.8,29.91,NW,313,0.0,7.0,81,0.00,,,0.07,VWS V14.01,2014-09-30 17:16:00,
2014-09-30 13:17:00,58.7,52.9,29.92,NW,313,0.0,7.0,81,0.00,,,0.07,VWS V14.01,2014-09-30 17:17:00,
2014-09-30 13:18:00,58.7,52.9,29.91,NW,313,0.0,7.0,81,0.00,,,0.07,VWS V14.01,2014-09-30 17:18:00,
2014-09-30 13:19:00,58.8,53.0,29.91,NW,313,0.0,7.0,81,0.00,,,0.07,VWS V14.01,2014-09-30 17:19:00,
2014-09-30 13:20:00,58.7,52.6,29.91,NW,313,0.0,7.0,80,0.00,,,0.07,VWS V14.01,2014-09-30 17:20:00,
2014-09-30 13:21:00,58.7,52.6,29.91,NW,313,0.0,7.0,80,0.00,,,0.07,VWS V14.01,2014-09-30 17:21:00,
2014-09-30 13:22:00,58.6,52.8,29.92,NW,313,0.0,7.0,81,0.00,,,0.07,VWS V14.01,2014-09-30 17:22:00,
2014-09-30 13:23:00,58.6,52.5,29.91,NW,313,0.0,7.0,80,0.00,,,0.07,VWS V14.01,2014-09-30 17:23:00,
2014-09-30 13:24:00,58.5,52.4,29.91,NNW,329,1.0,7.0,80,0.00,,,0.07,VWS V14.01,2014-09-30 17:24:00,
2014-09-30 13:25:00,58.4,52.6,29.91,NNW,329,0.0,7.0,81,0.00,,,0.07,VWS V14.01,2014-09-30 17:25:00,
2014-09-30 13:26:00,58.3,52.5,29.91,NNW,329,0.0,7.0,81,0.00,,,0.07,VWS V14.01,2014-09-30 17:26:00,
2014-09-30 13:27:00,58.2,52.7,29.91,NNW,339,5.0,7.0,82,0.00,,,0.07,VWS V14.01,2014-09-30 17:27:00,
2014-09-30 13:28:00,58.2,52.7,29.91,NE,48,0.0,7.0,82,0.00,,,0.07,VWS V14.01,2014-09-30 17:28:00,
2014-09-30 13:29:00,58.1,52.6,29.91,NE,48,0.0,7.0,82,0.00,,,0.07,VWS V14.01,2014-09-30 17:29:00,
2014-09-30 13:30:00,58.1,52.6,29.91,NE,48,0.0,7.0,82,0.00,,,0.07,VWS V14.01,2014-09-30 17:30:00,
2014-09-30 13:31:00,58.0,52.5,29.91,NE,43,2.0,7.0,82,0.00,,,0.07,VWS V14.01,2014-09-30 17:31:00,
2014-09-30 13:32:00,58.0,52.5,29.91,North,9,0.0,7.0,82,0.00,,,0.07,VWS V14.01,2014-09-30 17:32:00,
2014-09-30 13:33:00,57.9,52.5,29.91,NNW,338,0.0,7.0,82,0.00,,,0.07,VWS V14.01,2014-09-30 17:33:00,
2014-09-30 13:34:00,57.8,52.3,29.91,WSW,250,3.0,7.0,82,0.00,,,0.07,VWS V14.01,2014-09-30 17:34:00,
2014-09-30 13:35:00,57.7,51.9,29.91,WNW,293,5.0,7.0,81,0.00,,,0.07,VWS V14.01,2014-09-30 17:35:00,
2014-09-30 13:36:00,57.6,51.8,29.91,WNW,290,0.0,7.0,81,0.00,,,0.07,VWS V14.01,2014-09-30 17:36:00,
2014-09-30 13:37:00,57.6,51.8,29.91,WNW,287,0.0,8.0,81,0.00,,,0.07,VWS V14.01,2014-09-30 17:37:00,
2014-09-30 13:38:00,57.6,52.2,29.91,WNW,292,2.0,8.0,82,0.00,,,0.07,VWS V14.01,2014-09-30 17:38:00,
2014-09-30 13:39:00,57.5,52.1,29.91,WNW,292,0.0,8.0,82,0.00,,,0.07,VWS V14.01,2014-09-30 17:39:00,
2014-09-30 13:40:00,57.5,51.7,29.91,WNW,292,0.0,8.0,81,0.00,,,0.07,VWS V14.01,2014-09-30 17:40:00,
2014-09-30 13:41:00,57.5,52.1,29.91,WNW,296,0.0,8.0,82,0.00,,,0.07,VWS V14.01,2014-09-30 17:41:00,
2014-09-30 13:42:00,57.5,52.1,29.91,WNW,297,0.0,8.0,82,0.00,,,0.07,VWS V14.01,2014-09-30 17:42:00,
2014-09-30 13:43:00,57.5,52.1,29.91,WNW,296,4.0,8.0,82,0.00,,,0.07,VWS V14.01,2014-09-30 17:43:00,
2014-09-30 13:44:00,57.6,52.2,29.91,WNW,298,4.0,8.0,82,0.00,,,0.07,VWS V14.01,2014-09-30 17:44:00,
2014-09-30 13:45:00,57.6,52.2,29.91,WNW,302,1.0,8.0,82,0.00,,,0.07,VWS V14.01,2014-09-30 17:45:00,
2014-09-30 13:46:00,57.7,52.2,29.91,WNW,302,0.0,8.0,82,0.00,,,0.07,VWS V14.01,2014-09-30 17:46:00,
2014-09-30 13:47:00,57.7,52.2,29.91,WNW,302,1.0,8.0,82,0.00,,,0.07,VWS V14.01,2014-09-30 17:47:00,
2014-09-30 13:48:00,57.8,52.3,29.91,WNW,302,0.0,8.0,82,0.00,,,0.07,VWS V14.01,2014-09-30 17:48:00,
2014-09-30 13:49:00,57.8,52.3,29.91,WNW,302,0.0,8.0,82,0.00,,,0.07,VWS V14.01,2014-09-30 17:49:00,
2014-09-30 13:50:00,57.9,52.1,29.91,WNW,302,0.0,8.0,81,0.00,,,0.07,VWS V14.01,2014-09-30 17:50:00,
2014-09-30 13:51:00,58.0,52.2,29.91,WNW,302,0.0,8.0,81,0.00,,,0.07,VWS V14.01,2014-09-30 17:51:00,
2014-09-30 13:52:00,58.0,52.2,29.91,WNW,302,0.0,8.0,81,0.00,,,0.07,VWS V14.01,2014-09-30 17:52:00,
2014-09-30 13:53:00,58.1,52.0,29.91,WNW,302,0.0,8.0,80,0.00,,,0.07,VWS V14.01,2014-09-30 17:53:00,
2014-09-30 13:54:00,58.1,52.0,29.91,WNW,301,0.0,8.0,80,0.00,,,0.07,VWS V14.01,2014-09-30 17:54:00,
2014-09-30 13:55:00,58.2,52.4,29.91,NW,305,0.0,8.0,81,0.00,,,0.07,VWS V14.01,2014-09-30 17:55:00,
2014-09-30 13:56:00,58.2,52.4,29.91,NW,305,0.0,8.0,81,0.00,,,0.07,VWS V14.01,2014-09-30 17:56:00,
2014-09-30 13:57:00,58.3,52.5,29.91,NW,304,0.0,8.0,81,0.00,,,0.07,VWS V14.01,2014-09-30 17:57:00,
2014-09-30 13:58:00,58.3,52.2,29.91,WNW,303,0.0,8.0,80,0.00,,,0.07,VWS V14.01,2014-09-30 17:58:00,
2014-09-30 13:59:00,58.3,52.2,29.91,NW,310,2.0,8.0,80,0.00,,,0.07,VWS V14.01,2014-09-30 17:59:00,
2014-09-30 14:00:00,58.3,52.2,29.91,NW,310,0.0,8.0,80,0.00,,,0.07,VWS V14.01,2014-09-30 18:00:00,
2014-09-30 14:01:00,58.3,52.2,29.91,NW,310,0.0,0.0,80,0.00,,,0.07,VWS V14.01,2014-09-30 18:01:00,
2014-09-30 14:02:00,58.3,52.5,29.91,NW,310,0.0,0.0,81,0.00,,,0.07,VWS V14.01,2014-09-30 18:02:00,
2014-09-30 14:03:00,58.3,52.5,29.91,NW,310,0.0,0.0,81,0.00,,,0.07,VWS V14.01,2014-09-30 18:03:00,
2014-09-30 14:04:00,58.4,52.6,29.91,NW,310,0.0,1.0,81,0.00,,,0.07,VWS V14.01,2014-09-30 18:04:00,
2014-09-30 14:05:00,58.4,52.6,29.91,NW,313,5.0,5.0,81,0.00,,,0.07,VWS V14.01,2014-09-30 18:05:00,
2014-09-30 14:06:00,58.3,52.5,29.91,NW,313,0.0,5.0,81,0.00,,,0.07,VWS V14.01,2014-09-30 18:06:00,
2014-09-30 14:07:00,58.3,52.5,29.91,NW,313,0.0,5.0,81,0.00,,,0.07,VWS V14.01,2014-09-30 18:07:00,
2014-09-30 14:08:00,58.3,52.5,29.91,NW,313,0.0,5.0,81,0.00,,,0.07,VWS V14.01,2014-09-30 18:08:00,
2014-09-30 14:09:00,58.3,52.5,29.91,NW,313,2.0,5.0,81,0.00,,,0.07,VWS V14.01,2014-09-30 18:09:00,
2014-09-30 14:10:00,58.3,52.8,29.91,NW,313,0.0,5.0,82,0.00,,,0.07,VWS V14.01,2014-09-30 18:10:00,
2014-09-30 14:11:00,58.3,52.8,29.91,NW,313,0.0,5.0,82,0.00,,,0.07,VWS V14.01,2014-09-30 18:11:00,
2014-09-30 14:12:00,58.3,52.8,29.91,NW,313,0.0,5.0,82,0.00,,,0.07,VWS V14.01,2014-09-30 18:12:00,
2014-09-30 14:13:00,58.3,52.8,29.91,NW,313,0.0,5.0,82,0.00,,,0.07,VWS V14.01,2014-09-30 18:13:00,
2014-09-30 14:14:00,58.3,52.8,29.91,NW,313,0.0,5.0,82,0.00,,,0.07,VWS V14.01,2014-09-30 18:14:00,
2014-09-30 14:15:00,58.4,52.9,29.91,NW,313,1.0,5.0,82,0.00,,,0.07,VWS V14.01,2014-09-30 18:15:00,
2014-09-30 14:16:00,58.4,52.6,29.91,NW,313,0.0,5.0,81,0.00,,,0.07,VWS V14.01,2014-09-30 18:16:00,
2014-09-30 14:17:00,58.4,52.9,29.91,East,83,3.0,5.0,82,0.00,,,0.07,VWS V14.01,2014-09-30 18:17:00,
2014-09-30 14:18:00,58.5,52.7,29.91,East,82,0.0,5.0,81,0.00,,,0.07,VWS V14.01,2014-09-30 18:18:00,
2014-09-30 14:19:00,58.4,52.6,29.91,East,82,0.0,5.0,81,0.00,,,0.07,VWS V14.01,2014-09-30 18:19:00,
2014-09-30 14:20:00,58.4,52.6,29.91,East,82,0.0,5.0,81,0.00,,,0.07,VWS V14.01,2014-09-30 18:20:00,
2014-09-30 14:21:00,58.4,52.6,29.91,East,82,0.0,5.0,81,0.00,,,0.07,VWS V14.01,2014-09-30 18:21:00,
2014-09-30 14:22:00,58.4,52.9,29.91,ENE,76,1.0,5.0,82,0.00,,,0.07,VWS V14.01,2014-09-30 18:22:00,
2014-09-30 14:23:00,58.4,52.9,29.91,ENE,75,0.0,5.0,82,0.00,,,0.07,VWS V14.01,2014-09-30 18:23:00,
2014-09-30 14:24:00,58.3,52.8,29.91,ENE,76,1.0,5.0,82,0.00,,,0.07,VWS V14.01,2014-09-30 18:24:00,
2014-09-30 14:25:00,58.3,52.5,29.91,ENE,75,0.0,5.0,81,0.00,,,0.07,VWS V14.01,2014-09-30 18:25:00,
2014-09-30 14:26:00,58.3,52.8,29.91,ENE,76,0.0,5.0,82,0.00,,,0.07,VWS V14.01,2014-09-30 18:26:00,
2014-09-30 14:27:00,58.3,52.8,29.91,ENE,75,0.0,5.0,82,0.00,,,0.07,VWS V14.01,2014-09-30 18:27:00,
2014-09-30 14:28:00,58.4,52.9,29.91,ENE,74,1.0,5.0,82,0.00,,,0.07,VWS V14.01,2014-09-30 18:28:00,
2014-09-30 14:29:00,58.4,52.9,29.91,NNW,346,0.0,5.0,82,0.00,,,0.07,VWS V14.01,2014-09-30 18:29:00,
2014-09-30 14:30:00,58.4,52.9,29.91,NNW,346,0.0,5.0,82,0.00,,,0.07,VWS V14.01,2014-09-30 18:30:00,
2014-09-30 14:31:00,58.4,52.9,29.91,NNW,345,0.0,5.0,82,0.00,,,0.07,VWS V14.01,2014-09-30 18:31:00,
2014-09-30 14:32:00,58.5,53.0,29.91,West,281,5.0,5.0,82,0.00,,,0.07,VWS V14.01,2014-09-30 18:32:00,
2014-09-30 14:33:00,58.5,53.0,29.91,West,280,0.0,5.0,82,0.00,,,0.07,VWS V14.01,2014-09-30 18:33:00,
2014-09-30 14:34:00,58.5,53.0,29.91,West,280,0.0,5.0,82,0.00,,,0.07,VWS V14.01,2014-09-30 18:34:00,
2014-09-30 14:35:00,58.5,53.0,29.91,West,281,0.0,5.0,82,0.00,,,0.07,VWS V14.01,2014-09-30 18:35:00,
2014-09-30 14:36:00,58.6,53.1,29.91,West,281,0.0,5.0,82,0.00,,,0.07,VWS V14.01,2014-09-30 18:36:00,
2014-09-30 14:37:00,58.6,52.8,29.91,West,281,0.0,5.0,81,0.00,,,0.07,VWS V14.01,2014-09-30 18:37:00,
2014-09-30 14:38:00,58.6,52.8,29.91,West,281,0.0,5.0,81,0.00,,,0.07,VWS V14.01,2014-09-30 18:38:00,
2014-09-30 14:39:00,58.6,52.8,29.91,West,281,0.0,5.0,81,0.00,,,0.07,VWS V14.01,2014-09-30 18:39:00,
2014-09-30 14:40:00,58.6,52.8,29.91,ENE,65,0.0,5.0,81,0.00,,,0.07,VWS V14.01,2014-09-30 18:40:00,
2014-09-30 14:41:00,58.3,52.2,29.91,NW,310,0.0,0.0,80,0.00,,,0.07,VWS V14.01,2014-09-30 18:41:00,
2014-09-30 14:42:00,58.6,52.8,29.91,ENE,64,0.0,5.0,81,0.00,,,0.07,VWS V14.01,2014-09-30 18:42:00,
2014-09-30 14:43:00,58.6,52.8,29.91,ENE,63,0.0,5.0,81,0.00,,,0.07,VWS V14.01,2014-09-30 18:43:00,
2014-09-30 14:44:00,58.6,52.8,29.91,ENE,63,0.0,5.0,81,0.00,,,0.07,VWS V14.01,2014-09-30 18:44:00,
2014-09-30 14:45:00,58.6,52.8,29.91,ENE,63,0.0,5.0,81,0.00,,,0.07,VWS V14.01,2014-09-30 18:45:00,
2014-09-30 14:46:00,58.6,52.8,29.91,ENE,61,0.0,5.0,81,0.00,,,0.07,VWS V14.01,2014-09-30 18:46:00,
2014-09-30 14:47:00,58.6,52.8,29.91,NNE,15,0.0,6.0,81,0.00,,,0.07,VWS V14.01,2014-09-30 18:47:00,
2014-09-30 14:48:00,58.6,52.8,29.91,NNE,16,0.0,6.0,81,0.00,,,0.07,VWS V14.01,2014-09-30 18:48:00,
2014-09-30 14:49:00,58.6,52.8,29.91,NNE,21,0.0,6.0,81,0.00,,,0.07,VWS V14.01,2014-09-30 18:49:00,
2014-09-30 14:50:00,58.6,52.8,29.91,WNW,290,4.0,6.0,81,0.00,,,0.07,VWS V14.01,2014-09-30 18:50:00,
2014-09-30 14:51:00,58.6,52.5,29.91,WNW,288,2.0,6.0,80,0.00,,,0.07,VWS V14.01,2014-09-30 18:51:00,
2014-09-30 14:52:00,58.5,52.7,29.91,WNW,287,0.0,6.0,81,0.00,,,0.07,VWS V14.01,2014-09-30 18:52:00,
2014-09-30 14:53:00,58.5,52.4,29.91,WNW,288,4.0,6.0,80,0.00,,,0.07,VWS V14.01,2014-09-30 18:53:00,
2014-09-30 14:54:00,58.5,52.4,29.91,NNE,24,0.0,6.0,80,0.00,,,0.07,VWS V14.01,2014-09-30 18:54:00,
2014-09-30 14:55:00,58.5,52.4,29.91,NNW,333,3.0,6.0,80,0.00,,,0.07,VWS V14.01,2014-09-30 18:55:00,
2014-09-30 14:56:00,58.5,52.4,29.91,NNW,334,0.0,6.0,80,0.00,,,0.07,VWS V14.01,2014-09-30 18:56:00,
2014-09-30 14:57:00,58.5,52.4,29.91,NNW,339,1.0,6.0,80,0.00,,,0.07,VWS V14.01,2014-09-30 18:57:00,
2014-09-30 14:58:00,58.5,52.4,29.91,NNW,338,0.0,6.0,80,0.00,,,0.07,VWS V14.01,2014-09-30 18:58:00,
2014-09-30 14:59:00,58.4,52.6,29.91,East,82,0.0,5.0,81,0.00,,,0.07,VWS V14.01,2014-09-30 18:59:00,
2014-09-30 15:00:00,58.4,52.3,29.91,NW,325,1.0,6.0,80,0.00,,,0.07,VWS V14.01,2014-09-30 19:00:00,
2014-09-30 15:01:00,58.5,52.7,29.91,NW,325,0.0,1.0,81,0.00,,,0.07,VWS V14.01,2014-09-30 19:01:00,
2014-09-30 15:02:00,58.4,52.3,29.91,NW,325,0.0,1.0,80,0.00,,,0.07,VWS V14.01,2014-09-30 19:02:00,
2014-09-30 15:03:00,58.5,52.7,29.91,NNW,335,0.0,4.0,81,0.00,,,0.07,VWS V14.01,2014-09-30 19:03:00,
2014-09-30 15:04:00,58.5,52.4,29.91,NNW,335,0.0,4.0,80,0.00,,,0.07,VWS V14.01,2014-09-30 19:04:00,
2014-09-30 15:05:00,58.5,52.4,29.91,NNW,344,0.0,4.0,80,0.00,,,0.07,VWS V14.01,2014-09-30 19:05:00,
2014-09-30 15:06:00,58.5,52.4,29.91,NNW,346,0.0,4.0,80,0.00,,,0.07,VWS V14.01,2014-09-30 19:06:00,
2014-09-30 15:07:00,58.4,52.3,29.91,WNW,291,4.0,6.0,80,0.00,,,0.07,VWS V14.01,2014-09-30 19:07:00,
2014-09-30 15:08:00,58.4,52.3,29.91,WNW,291,0.0,6.0,80,0.00,,,0.07,VWS V14.01,2014-09-30 19:08:00,
2014-09-30 15:09:00,58.4,52.3,29.91,WNW,291,0.0,6.0,80,0.00,,,0.07,VWS V14.01,2014-09-30 19:09:00,
2014-09-30 15:10:00,58.4,52.3,29.91,WNW,291,0.0,6.0,80,0.00,,,0.07,VWS V14.01,2014-09-30 19:10:00,
2014-09-30 15:11:00,58.4,52.6,29.91,WNW,291,0.0,6.0,81,0.00,,,0.07,VWS V14.01,2014-09-30 19:11:00,
2014-09-30 15:12:00,58.3,52.2,29.91,WNW,298,1.0,6.0,80,0.00,,,0.07,VWS V14.01,2014-09-30 19:12:00,
2014-09-30 15:13:00,58.2,52.4,29.91,WNW,299,0.0,6.0,81,0.00,,,0.07,VWS V14.01,2014-09-30 19:13:00,
2014-09-30 15:14:00,58.2,52.4,29.91,WNW,299,0.0,6.0,81,0.00,,,0.07,VWS V14.01,2014-09-30 19:14:00,
2014-09-30 15:15:00,58.2,52.4,29.91,WNW,298,0.0,6.0,81,0.00,,,0.07,VWS V14.01,2014-09-30 19:15:00,
2014-09-30 15:16:00,58.2,52.4,29.92,WNW,298,0.0,6.0,81,0.00,,,0.07,VWS V14.01,2014-09-30 19:16:00,
2014-09-30 15:17:00,58.2,52.4,29.92,WNW,298,1.0,6.0,81,0.00,,,0.07,VWS V14.01,2014-09-30 19:17:00,
2014-09-30 15:18:00,58.1,52.3,29.92,WNW,298,1.0,6.0,81,0.00,,,0.07,VWS V14.01,2014-09-30 19:18:00,
2014-09-30 15:19:00,58.1,52.0,29.92,WNW,298,0.0,6.0,80,0.00,,,0.07,VWS V14.01,2014-09-30 19:19:00,
2014-09-30 15:26:00,58.6,52.8,29.91,ENE,63,0.0,5.0,81,0.00,,,0.07,VWS V14.01,2014-09-30 19:26:00,
2014-09-30 15:50:00,58.4,52.3,29.91,WNW,291,0.0,6.0,80,0.00,,,0.07,VWS V14.01,2014-09-30 19:50:00,